Observation data for Hackberry on 11/16/2019      Previous  Date       Current Mesonet Observations  Soil Data  Daily Summary Page  Observations in Plain Language
KHA3 160600Z 18008KT 06/M00 A302 RMK A01 T00601002  RH  064%=      5-min Rain = 0
KHA3 160601Z 18008KT 06/M00 A302 RMK A01 T00601002  RH  064%=      5-min Rain = 0
KHA3 160602Z 18009KT 06/M00 A302 RMK A01 T00601002  RH  064%=      5-min Rain = 0
KHA3 160603Z 18009KT 06/M00 A302 RMK A01 T00611002  RH  064%=      5-min Rain = 0
KHA3 160604Z 18009KT 06/M00 A302 RMK A01 T00611002  RH  064%=      5-min Rain = 0
KHA3 160605Z 18009KT 06/M00 A302 RMK A01 T00621002  RH  064%=      5-min Rain = 0
KHA3 160606Z 18009KT 06/M00 A302 RMK A01 T00621001  RH  064%=      5-min Rain = 0
KHA3 160607Z 18009KT 06/M00 A302 RMK A01 T00611002  RH  064%=      5-min Rain = 0
KHA3 160608Z 18009KT 06/M00 A302 RMK A01 T00611002  RH  064%=      5-min Rain = 0
KHA3 160609Z 18009KT 06/M00 A302 RMK A01 T00611002  RH  064%=      5-min Rain = 0
KHA3 160610Z 18009KT 06/M00 A302 RMK A01 T00611002  RH  064%=      5-min Rain = 0
KHA3 160611Z 18009KT 06/M00 A302 RMK A01 T00621002  RH  064%=      5-min Rain = 0
KHA3 160612Z 18009KT 06/M00 A302 RMK A01 T00621002  RH  064%=      5-min Rain = 0
KHA3 160613Z 19008KT 06/M00 A302 RMK A01 T00621002  RH  064%=      5-min Rain = 0
KHA3 160614Z 19008KT 06/M00 A302 RMK A01 T00631001  RH  063%=      5-min Rain = 0
KHA3 160615Z 19008KT 06/M00 A302 RMK A01 T00631001  RH  063%=      5-min Rain = 0
KHA3 160616Z 19008KT 06/M00 A302 RMK A01 T00621002  RH  064%=      5-min Rain = 0
KHA3 160617Z 19008KT 06/M00 A302 RMK A01 T00621002  RH  064%=      5-min Rain = 0
KHA3 160618Z 18008KT 06/M00 A302 RMK A01 T00621002  RH  064%=      5-min Rain = 0
KHA3 160619Z 18008KT 06/M00 A302 RMK A01 T00621002  RH  064%=      5-min Rain = 0
KHA3 160620Z 18008KT 06/M00 A302 RMK A01 T00611002  RH  064%=      5-min Rain = 0
KHA3 160621Z 18007KT 06/M00 A3019 RMK A01 T00611002  RH  064%=      5-min Rain = 0
KHA3 160622Z 18008KT 06/M00 A3019 RMK A01 T00601002  RH  064%=      5-min Rain = 0
KHA3 160623Z 18008KT 06/M00 A3019 RMK A01 T00601002  RH  064%=      5-min Rain = 0
KHA3 160624Z 18007KT 06/M00 A3019 RMK A01 T00601002  RH  064%=      5-min Rain = 0
KHA3 160625Z 18008KT 06/M00 A3019 RMK A01 T00601002  RH  064%=      5-min Rain = 0
KHA3 160626Z 18007KT 06/M00 A3019 RMK A01 T00601002  RH  064%=      5-min Rain = 0
KHA3 160627Z 18007KT 06/M00 A3019 RMK A01 T00601002  RH  064%=      5-min Rain = 0
KHA3 160628Z 18007KT 06/M00 A3019 RMK A01 T00601002  RH  065%=      5-min Rain = 0
KHA3 160629Z 18007KT 06/M00 A3019 RMK A01 T00591002  RH  065%=      5-min Rain = 0
KHA3 160630Z 18007KT 06/M00 A3019 RMK A01 T00581003  RH  065%=      5-min Rain = 0
KHA3 160631Z 18007KT 06/M00 A3019 RMK A01 T00581003  RH  065%=      5-min Rain = 0
KHA3 160632Z 18006KT 06/M00 A3019 RMK A01 T00571003  RH  065%=      5-min Rain = 0
KHA3 160633Z 19007KT 06/M00 A3019 RMK A01 T00571003  RH  065%=      5-min Rain = 0
KHA3 160634Z 18007KT 06/M00 A3019 RMK A01 T00571003  RH  066%=      5-min Rain = 0
KHA3 160635Z 18007KT 06/M00 A3019 RMK A01 T00561003  RH  066%=      5-min Rain = 0
KHA3 160636Z 19007KT 06/M00 A3019 RMK A01 T00561003  RH  066%=      5-min Rain = 0
KHA3 160637Z 19007KT 06/M00 A3019 RMK A01 T00551003  RH  066%=      5-min Rain = 0
KHA3 160638Z 18007KT 06/M00 A3019 RMK A01 T00551003  RH  066%=      5-min Rain = 0
KHA3 160639Z 18007KT 06/M00 A3019 RMK A01 T00551003  RH  066%=      5-min Rain = 0
KHA3 160640Z 18007KT 06/M00 A3019 RMK A01 T00551003  RH  066%=      5-min Rain = 0
KHA3 160641Z 18008KT 06/M00 A3019 RMK A01 T00551003  RH  066%=      5-min Rain = 0
KHA3 160642Z 18008KT 06/M00 A3019 RMK A01 T00551003  RH  066%=      5-min Rain = 0
KHA3 160643Z 18008KT 06/M00 A3019 RMK A01 T00551003  RH  066%=      5-min Rain = 0
KHA3 160644Z 18008KT 06/M00 A3019 RMK A01 T00551003  RH  066%=      5-min Rain = 0
KHA3 160645Z 18008KT 06/M00 A3019 RMK A01 T00551003  RH  066%=      5-min Rain = 0
KHA3 160646Z 18009KT 06/M00 A3019 RMK A01 T00551003  RH  066%=      5-min Rain = 0
KHA3 160647Z 18008KT 06/M00 A3019 RMK A01 T00551003  RH  066%=      5-min Rain = 0
KHA3 160648Z 18008KT 06/M00 A3019 RMK A01 T00561002  RH  066%=      5-min Rain = 0
KHA3 160649Z 18008KT 06/M00 A3019 RMK A01 T00561003  RH  066%=      5-min Rain = 0
KHA3 160650Z 18008KT 06/M00 A3019 RMK A01 T00561002  RH  066%=      5-min Rain = 0
KHA3 160651Z 18008KT 06/M00 A3019 RMK A01 T00561002  RH  066%=      5-min Rain = 0
KHA3 160652Z 18008KT 06/M00 A3019 RMK A01 T00561002  RH  066%=      5-min Rain = 0
KHA3 160653Z 18008KT 06/M00 A3019 RMK A01 T00561002  RH  066%=      5-min Rain = 0
KHA3 160654Z 18008KT 06/M00 A3019 RMK A01 T00561002  RH  066%=      5-min Rain = 0
KHA3 160655Z 18008KT 06/M00 A3019 RMK A01 T00561002  RH  066%=      5-min Rain = 0
KHA3 160656Z 18008KT 06/M00 A3019 RMK A01 T00561002  RH  066%=      5-min Rain = 0
KHA3 160657Z 18008KT 06/M00 A3019 RMK A01 T00561002  RH  066%=      5-min Rain = 0
KHA3 160658Z 18008KT 06/M00 A3019 RMK A01 T00561002  RH  066%=      5-min Rain = 0
KHA3 160659Z 17008KT 06/M00 A3019 RMK A01 T00571002  RH  066%=      5-min Rain = 0
KHA3 160700Z 18008KT 06/M00 A3018 RMK A01 T00571002  RH  066%=      5-min Rain = 0
KHA3 160701Z 17008KT 06/M00 A3018 RMK A01 T00571002  RH  066%=      5-min Rain = 0
KHA3 160702Z 17008KT 06/M00 A3018 RMK A01 T00581002  RH  065%=      5-min Rain = 0
KHA3 160703Z 18008KT 06/M00 A3018 RMK A01 T00591001  RH  065%=      5-min Rain = 0
KHA3 160704Z 17008KT 06/M00 A3018 RMK A01 T00591002  RH  065%=      5-min Rain = 0
KHA3 160705Z 18008KT 06/M00 A3018 RMK A01 T00591002  RH  065%=      5-min Rain = 0
KHA3 160706Z 18008KT 06/M00 A3018 RMK A01 T00591002  RH  065%=      5-min Rain = 0
KHA3 160707Z 18008KT 06/M00 A3018 RMK A01 T00591002  RH  065%=      5-min Rain = 0
KHA3 160708Z 18008KT 06/M00 A3018 RMK A01 T00581002  RH  065%=      5-min Rain = 0
KHA3 160709Z 18008KT 06/M00 A3018 RMK A01 T00591002  RH  065%=      5-min Rain = 0
KHA3 160710Z 18008KT 06/M00 A3018 RMK A01 T00591002  RH  065%=      5-min Rain = 0
KHA3 160711Z 18007KT 06/M00 A3018 RMK A01 T00591002  RH  065%=      5-min Rain = 0
KHA3 160712Z 18007KT 06/M00 A3018 RMK A01 T00591002  RH  065%=      5-min Rain = 0
KHA3 160713Z 18007KT 06/M00 A3018 RMK A01 T00581002  RH  065%=      5-min Rain = 0
KHA3 160714Z 18007KT 06/M00 A3018 RMK A01 T00581002  RH  065%=      5-min Rain = 0
KHA3 160715Z 18007KT 06/M00 A3018 RMK A01 T00581002  RH  065%=      5-min Rain = 0
KHA3 160716Z 18008KT 06/M00 A3018 RMK A01 T00581002  RH  065%=      5-min Rain = 0
KHA3 160717Z 18007KT 06/M00 A3018 RMK A01 T00581002  RH  065%=      5-min Rain = 0
KHA3 160718Z 18007KT 06/M00 A3018 RMK A01 T00581002  RH  065%=      5-min Rain = 0
KHA3 160719Z 18007KT 06/M00 A3018 RMK A01 T00571002  RH  066%=      5-min Rain = 0
KHA3 160720Z 17007KT 06/M00 A3018 RMK A01 T00561002  RH  066%=      5-min Rain = 0
KHA3 160721Z 17007KT 06/M00 A3018 RMK A01 T00561003  RH  066%=      5-min Rain = 0
KHA3 160722Z 17008KT 06/M00 A3018 RMK A01 T00561002  RH  066%=      5-min Rain = 0
KHA3 160723Z 17008KT 06/M00 A3018 RMK A01 T00561002  RH  066%=      5-min Rain = 0
KHA3 160724Z 17007KT 06/M00 A3018 RMK A01 T00561002  RH  066%=      5-min Rain = 0
KHA3 160725Z 17007KT 06/M00 A3018 RMK A01 T00551003  RH  066%=      5-min Rain = 0
KHA3 160726Z 17008KT 06/M00 A3018 RMK A01 T00551003  RH  067%=      5-min Rain = 0
KHA3 160727Z 18007KT 05/M00 A3018 RMK A01 T00541003  RH  067%=      5-min Rain = 0
KHA3 160728Z 17008KT 05/M00 A3018 RMK A01 T00541003  RH  067%=      5-min Rain = 0
KHA3 160729Z 17008KT 05/M00 A3018 RMK A01 T00541003  RH  067%=      5-min Rain = 0
KHA3 160730Z 18008KT 05/M00 A3018 RMK A01 T00541003  RH  067%=      5-min Rain = 0
KHA3 160731Z 17008KT 05/M00 A3018 RMK A01 T00541003  RH  067%=      5-min Rain = 0
KHA3 160732Z 18008KT 05/M00 A3018 RMK A01 T00541003  RH  067%=      5-min Rain = 0
KHA3 160733Z 18008KT 05/M00 A3018 RMK A01 T00541002  RH  067%=      5-min Rain = 0
KHA3 160734Z 17008KT 05/M00 A3018 RMK A01 T00541003  RH  067%=      5-min Rain = 0
KHA3 160735Z 17008KT 06/M00 A3018 RMK A01 T00551003  RH  067%=      5-min Rain = 0
KHA3 160736Z 17008KT 05/M00 A3018 RMK A01 T00541003  RH  067%=      5-min Rain = 0
KHA3 160737Z 17008KT 05/M00 A3018 RMK A01 T00541003  RH  067%=      5-min Rain = 0
KHA3 160738Z 17008KT 05/M00 A3018 RMK A01 T00531003  RH  067%=      5-min Rain = 0
KHA3 160739Z 17008KT 05/M00 A3018 RMK A01 T00531002  RH  067%=      5-min Rain = 0
KHA3 160740Z 17008KT 05/M00 A3018 RMK A01 T00531002  RH  068%=      5-min Rain = 0
KHA3 160741Z 17008KT 05/M00 A3018 RMK A01 T00531002  RH  068%=      5-min Rain = 0
KHA3 160742Z 18007KT 05/M00 A3018 RMK A01 T00531002  RH  068%=      5-min Rain = 0
KHA3 160743Z 18008KT 05/M00 A3018 RMK A01 T00531002  RH  068%=      5-min Rain = 0
KHA3 160744Z 18008KT 05/M00 A3018 RMK A01 T00531002  RH  067%=      5-min Rain = 0
KHA3 160745Z 18007KT 05/M00 A3018 RMK A01 T00531002  RH  067%=      5-min Rain = 0
KHA3 160746Z 18007KT 05/M00 A3018 RMK A01 T00531002  RH  067%=      5-min Rain = 0
KHA3 160747Z 18007KT 05/M00 A3018 RMK A01 T00541002  RH  067%=      5-min Rain = 0
KHA3 160748Z 19007KT 05/M00 A3018 RMK A01 T00541003  RH  067%=      5-min Rain = 0
KHA3 160749Z 19007KT 05/M00 A3018 RMK A01 T00541003  RH  067%=      5-min Rain = 0
KHA3 160750Z 18007KT 05/M00 A3018 RMK A01 T00531003  RH  067%=      5-min Rain = 0
KHA3 160751Z 18007KT 05/M00 A3018 RMK A01 T00521003  RH  068%=      5-min Rain = 0
KHA3 160752Z 18007KT 05/M00 A3018 RMK A01 T00521003  RH  068%=      5-min Rain = 0
KHA3 160753Z 18007KT 05/M00 A3017 RMK A01 T00511003  RH  068%=      5-min Rain = 0
KHA3 160754Z 18007KT 05/M00 A3017 RMK A01 T00511003  RH  068%=      5-min Rain = 0
KHA3 160755Z 18007KT 05/M00 A3017 RMK A01 T00511003  RH  068%=      5-min Rain = 0
KHA3 160756Z 18007KT 05/M00 A3017 RMK A01 T00511003  RH  068%=      5-min Rain = 0
KHA3 160757Z 18007KT 05/M00 A3017 RMK A01 T00511003  RH  068%=      5-min Rain = 0
KHA3 160758Z 18007KT 05/M00 A3017 RMK A01 T00511003  RH  068%=      5-min Rain = 0
KHA3 160759Z 18007KT 05/M00 A3017 RMK A01 T00511003  RH  068%=      5-min Rain = 0
KHA3 160800Z 18007KT 05/M00 A3017 RMK A01 T00501003  RH  068%=      5-min Rain = 0
KHA3 160801Z 18007KT 05/M00 A3017 RMK A01 T00501003  RH  068%=      5-min Rain = 0
KHA3 160802Z 18007KT 05/M00 A3017 RMK A01 T00511003  RH  068%=      5-min Rain = 0
KHA3 160803Z 18007KT 05/M00 A3017 RMK A01 T00511003  RH  068%=      5-min Rain = 0
KHA3 160804Z 18007KT 05/M00 A3017 RMK A01 T00521003  RH  068%=      5-min Rain = 0
KHA3 160805Z 18007KT 05/M00 A3017 RMK A01 T00521003  RH  068%=      5-min Rain = 0
KHA3 160806Z 18007KT 05/M00 A3017 RMK A01 T00521003  RH  068%=      5-min Rain = 0
KHA3 160807Z 18007KT 05/M00 A3017 RMK A01 T00521003  RH  067%=      5-min Rain = 0
KHA3 160808Z 18007KT 05/M00 A3017 RMK A01 T00521003  RH  067%=      5-min Rain = 0
KHA3 160809Z 18007KT 05/M00 A3017 RMK A01 T00521003  RH  067%=      5-min Rain = 0
KHA3 160810Z 18007KT 05/M00 A3017 RMK A01 T00521003  RH  067%=      5-min Rain = 0
KHA3 160811Z 18007KT 05/M00 A3017 RMK A01 T00521003  RH  068%=      5-min Rain = 0
KHA3 160812Z 18007KT 05/M00 A3017 RMK A01 T00521003  RH  068%=      5-min Rain = 0
KHA3 160813Z 18007KT 05/M00 A3017 RMK A01 T00521003  RH  068%=      5-min Rain = 0
KHA3 160814Z 18007KT 05/M00 A3017 RMK A01 T00521003  RH  068%=      5-min Rain = 0
KHA3 160815Z 18007KT 05/M00 A3017 RMK A01 T00511003  RH  068%=      5-min Rain = 0
KHA3 160816Z 19007KT 05/M00 A3017 RMK A01 T00511003  RH  068%=      5-min Rain = 0
KHA3 160817Z 19007KT 05/M00 A3017 RMK A01 T00501003  RH  068%=      5-min Rain = 0
KHA3 160818Z 19007KT 05/M00 A3017 RMK A01 T00501003  RH  068%=      5-min Rain = 0
KHA3 160819Z 19007KT 05/M00 A3017 RMK A01 T00501003  RH  068%=      5-min Rain = 0
KHA3 160820Z 18007KT 05/M00 A3017 RMK A01 T00501003  RH  068%=      5-min Rain = 0
KHA3 160821Z 18006KT 05/M00 A3017 RMK A01 T00501003  RH  068%=      5-min Rain = 0
KHA3 160822Z 18007KT 05/M00 A3017 RMK A01 T00491004  RH  069%=      5-min Rain = 0
KHA3 160823Z 18006KT 05/M00 A3017 RMK A01 T00481004  RH  069%=      5-min Rain = 0
KHA3 160824Z 18007KT 05/M00 A3017 RMK A01 T00471004  RH  069%=      5-min Rain = 0
KHA3 160825Z 18006KT 05/M00 A3017 RMK A01 T00471004  RH  070%=      5-min Rain = 0
KHA3 160826Z 18006KT 05/M00 A3017 RMK A01 T00471004  RH  070%=      5-min Rain = 0
KHA3 160827Z 18006KT 05/M00 A3017 RMK A01 T00471004  RH  070%=      5-min Rain = 0
KHA3 160828Z 18007KT 05/M00 A3017 RMK A01 T00471004  RH  070%=      5-min Rain = 0
KHA3 160829Z 19007KT 05/M00 A3017 RMK A01 T00471004  RH  069%=      5-min Rain = 0
KHA3 160830Z 18006KT 05/M00 A3017 RMK A01 T00471004  RH  069%=      5-min Rain = 0
KHA3 160831Z 18007KT 05/M00 A3017 RMK A01 T00471004  RH  069%=      5-min Rain = 0
KHA3 160832Z 19006KT 05/M00 A3017 RMK A01 T00481004  RH  069%=      5-min Rain = 0
KHA3 160833Z 19007KT 05/M00 A3017 RMK A01 T00481004  RH  069%=      5-min Rain = 0
KHA3 160834Z 19007KT 05/M00 A3017 RMK A01 T00491004  RH  069%=      5-min Rain = 0
KHA3 160835Z 19006KT 05/M00 A3017 RMK A01 T00491004  RH  069%=      5-min Rain = 0
KHA3 160836Z 19006KT 05/M00 A3017 RMK A01 T00491004  RH  068%=      5-min Rain = 0
KHA3 160837Z 19007KT 05/M00 A3017 RMK A01 T00491004  RH  068%=      5-min Rain = 0
KHA3 160838Z 19006KT 05/M00 A3017 RMK A01 T00501004  RH  068%=      5-min Rain = 0
KHA3 160839Z 19006KT 05/M00 A3017 RMK A01 T00501004  RH  068%=      5-min Rain = 0
KHA3 160840Z 19006KT 05/M00 A3017 RMK A01 T00501004  RH  068%=      5-min Rain = 0
KHA3 160841Z 18007KT 05/M00 A3017 RMK A01 T00501004  RH  068%=      5-min Rain = 0
KHA3 160842Z 18006KT 05/M00 A3017 RMK A01 T00501004  RH  068%=      5-min Rain = 0
KHA3 160843Z 18006KT 05/M00 A3017 RMK A01 T00501004  RH  068%=      5-min Rain = 0
KHA3 160844Z 18006KT 05/M00 A3017 RMK A01 T00501004  RH  068%=      5-min Rain = 0
KHA3 160845Z 18006KT 05/M00 A3017 RMK A01 T00501004  RH  068%=      5-min Rain = 0
KHA3 160846Z 18006KT 05/M00 A3017 RMK A01 T00501004  RH  068%=      5-min Rain = 0
KHA3 160847Z 18006KT 05/M01 A3017 RMK A01 T00491005  RH  068%=      5-min Rain = 0
KHA3 160848Z 18006KT 05/M01 A3017 RMK A01 T00481005  RH  068%=      5-min Rain = 0
KHA3 160849Z 18006KT 05/M01 A3017 RMK A01 T00481005  RH  069%=      5-min Rain = 0
KHA3 160850Z 18006KT 05/M01 A3017 RMK A01 T00471005  RH  069%=      5-min Rain = 0
KHA3 160851Z 18006KT 05/M01 A3017 RMK A01 T00471005  RH  069%=      5-min Rain = 0
KHA3 160852Z 18006KT 05/M01 A3017 RMK A01 T00471005  RH  069%=      5-min Rain = 0
KHA3 160853Z 18006KT 05/M01 A3017 RMK A01 T00471005  RH  069%=      5-min Rain = 0
KHA3 160854Z 18006KT 05/M01 A3017 RMK A01 T00471005  RH  069%=      5-min Rain = 0
KHA3 160855Z 17005KT 05/M01 A3017 RMK A01 T00471005  RH  069%=      5-min Rain = 0
KHA3 160856Z 18005KT 05/M01 A3017 RMK A01 T00481005  RH  069%=      5-min Rain = 0
KHA3 160857Z 18006KT 05/M01 A3017 RMK A01 T00471005  RH  069%=      5-min Rain = 0
KHA3 160858Z 18005KT 05/M01 A3017 RMK A01 T00481005  RH  069%=      5-min Rain = 0
KHA3 160859Z 18005KT 05/M00 A3017 RMK A01 T00481004  RH  069%=      5-min Rain = 0
KHA3 160900Z 18005KT 05/M00 A3017 RMK A01 T00481004  RH  069%=      5-min Rain = 0
KHA3 160901Z 18005KT 05/M01 A3017 RMK A01 T00481005  RH  069%=      5-min Rain = 0
KHA3 160902Z 18005KT 05/M01 A3017 RMK A01 T00481005  RH  069%=      5-min Rain = 0
KHA3 160903Z 18005KT 05/M01 A3017 RMK A01 T00481005  RH  069%=      5-min Rain = 0
KHA3 160904Z 18005KT 05/M01 A3017 RMK A01 T00481005  RH  069%=      5-min Rain = 0
KHA3 160905Z 18005KT 05/M01 A3017 RMK A01 T00471006  RH  069%=      5-min Rain = 0
KHA3 160906Z 18005KT 05/M01 A3017 RMK A01 T00471005  RH  069%=      5-min Rain = 0
KHA3 160907Z 18005KT 05/M01 A3017 RMK A01 T00481006  RH  068%=      5-min Rain = 0
KHA3 160908Z 18005KT 05/M01 A3017 RMK A01 T00481006  RH  068%=      5-min Rain = 0
KHA3 160909Z 18005KT 05/M01 A3017 RMK A01 T00481006  RH  068%=      5-min Rain = 0
KHA3 160910Z 18005KT 05/M01 A3017 RMK A01 T00471005  RH  069%=      5-min Rain = 0
KHA3 160911Z 18005KT 05/M01 A3017 RMK A01 T00471005  RH  069%=      5-min Rain = 0
KHA3 160912Z 18005KT 05/M01 A3017 RMK A01 T00461006  RH  069%=      5-min Rain = 0
KHA3 160913Z 18005KT 05/M01 A3017 RMK A01 T00471005  RH  069%=      5-min Rain = 0
KHA3 160914Z 18005KT 05/M01 A3017 RMK A01 T00471005  RH  069%=      5-min Rain = 0
KHA3 160915Z 18005KT 05/M01 A3017 RMK A01 T00471005  RH  069%=      5-min Rain = 0
KHA3 160916Z 18005KT 05/M01 A3017 RMK A01 T00471005  RH  069%=      5-min Rain = 0
KHA3 160917Z 18004KT 05/M01 A3017 RMK A01 T00471006  RH  069%=      5-min Rain = 0
KHA3 160918Z 18005KT 05/M01 A3017 RMK A01 T00481005  RH  068%=      5-min Rain = 0
KHA3 160919Z 18005KT 05/M01 A3017 RMK A01 T00471005  RH  069%=      5-min Rain = 0
KHA3 160920Z 19004KT 05/M01 A3017 RMK A01 T00471006  RH  069%=      5-min Rain = 0
KHA3 160921Z 19005KT 05/M01 A3017 RMK A01 T00471005  RH  069%=      5-min Rain = 0
KHA3 160922Z 19005KT 05/M01 A3017 RMK A01 T00461005  RH  069%=      5-min Rain = 0
KHA3 160923Z 19005KT 05/M01 A3017 RMK A01 T00461006  RH  069%=      5-min Rain = 0
KHA3 160924Z 19005KT 05/M01 A3017 RMK A01 T00461006  RH  069%=      5-min Rain = 0
KHA3 160925Z 19005KT 05/M01 A3017 RMK A01 T00461006  RH  069%=      5-min Rain = 0
KHA3 160926Z 19005KT 05/M01 A3017 RMK A01 T00461006  RH  069%=      5-min Rain = 0
KHA3 160927Z 19005KT 05/M01 A3017 RMK A01 T00451006  RH  069%=      5-min Rain = 0
KHA3 160928Z 19005KT 05/M01 A3017 RMK A01 T00451006  RH  070%=      5-min Rain = 0
KHA3 160929Z 19005KT 05/M01 A3017 RMK A01 T00451005  RH  070%=      5-min Rain = 0
KHA3 160930Z 19005KT 05/M01 A3017 RMK A01 T00451006  RH  070%=      5-min Rain = 0
KHA3 160931Z 19005KT 05/M01 A3016 RMK A01 T00451005  RH  070%=      5-min Rain = 0
KHA3 160932Z 19005KT 05/M01 A3016 RMK A01 T00451006  RH  070%=      5-min Rain = 0
KHA3 160933Z 19005KT 05/M01 A3016 RMK A01 T00451006  RH  070%=      5-min Rain = 0
KHA3 160934Z 19005KT 05/M01 A3016 RMK A01 T00451006  RH  070%=      5-min Rain = 0
KHA3 160935Z 19005KT 05/M01 A3016 RMK A01 T00451006  RH  070%=      5-min Rain = 0
KHA3 160936Z 19005KT 05/M01 A3016 RMK A01 T00451006  RH  070%=      5-min Rain = 0
KHA3 160937Z 19005KT 05/M01 A3016 RMK A01 T00451006  RH  070%=      5-min Rain = 0
KHA3 160938Z 19005KT 05/M01 A3016 RMK A01 T00451005  RH  070%=      5-min Rain = 0
KHA3 160939Z 19005KT 05/M01 A3016 RMK A01 T00451006  RH  070%=      5-min Rain = 0
KHA3 160940Z 19005KT 05/M01 A3016 RMK A01 T00451006  RH  070%=      5-min Rain = 0
KHA3 160941Z 19005KT 05/M01 A3016 RMK A01 T00451006  RH  070%=      5-min Rain = 0
KHA3 160942Z 19005KT 05/M01 A3016 RMK A01 T00451006  RH  070%=      5-min Rain = 0
KHA3 160943Z 19005KT 05/M01 A3016 RMK A01 T00451006  RH  070%=      5-min Rain = 0
KHA3 160944Z 19006KT 05/M01 A3016 RMK A01 T00451006  RH  070%=      5-min Rain = 0
KHA3 160945Z 19006KT 05/M01 A3016 RMK A01 T00451006  RH  070%=      5-min Rain = 0
KHA3 160946Z 19005KT 05/M01 A3016 RMK A01 T00451006  RH  070%=      5-min Rain = 0
KHA3 160947Z 19006KT 05/M01 A3016 RMK A01 T00451006  RH  070%=      5-min Rain = 0
KHA3 160948Z 19005KT 05/M01 A3016 RMK A01 T00451006  RH  069%=      5-min Rain = 0
KHA3 160949Z 19005KT 05/M01 A3016 RMK A01 T00451006  RH  069%=      5-min Rain = 0
KHA3 160950Z 19005KT 04/M01 A3016 RMK A01 T00441006  RH  070%=      5-min Rain = 0
KHA3 160951Z 19006KT 04/M01 A3016 RMK A01 T00431006  RH  070%=      5-min Rain = 0
KHA3 160952Z 19006KT 04/M01 A3016 RMK A01 T00441006  RH  070%=      5-min Rain = 0
KHA3 160953Z 19006KT 04/M01 A3016 RMK A01 T00431006  RH  070%=      5-min Rain = 0
KHA3 160954Z 19006KT 04/M01 A3016 RMK A01 T00431006  RH  070%=      5-min Rain = 0
KHA3 160955Z 19006KT 04/M01 A3016 RMK A01 T00431006  RH  070%=      5-min Rain = 0
KHA3 160956Z 19006KT 04/M01 A3016 RMK A01 T00431006  RH  070%=      5-min Rain = 0
KHA3 160957Z 18006KT 04/M01 A3016 RMK A01 T00431006  RH  071%=      5-min Rain = 0
KHA3 160958Z 18006KT 04/M01 A3016 RMK A01 T00431006  RH  071%=      5-min Rain = 0
KHA3 160959Z 18006KT 04/M01 A3016 RMK A01 T00421006  RH  071%=      5-min Rain = 0
KHA3 161000Z 18006KT 04/M01 A3016 RMK A01 T00421006  RH  071%=      5-min Rain = 0
KHA3 161001Z 18006KT 04/M01 A3016 RMK A01 T00411006  RH  071%=      5-min Rain = 0
KHA3 161002Z 18006KT 04/M01 A3016 RMK A01 T00411006  RH  072%=      5-min Rain = 0
KHA3 161003Z 17006KT 04/M01 A3016 RMK A01 T00411006  RH  072%=      5-min Rain = 0
KHA3 161004Z 17006KT 04/M01 A3016 RMK A01 T00411006  RH  072%=      5-min Rain = 0
KHA3 161005Z 17006KT 04/M01 A3016 RMK A01 T00411006  RH  072%=      5-min Rain = 0
KHA3 161006Z 17006KT 04/M01 A3016 RMK A01 T00411006  RH  072%=      5-min Rain = 0
KHA3 161007Z 17006KT 04/M01 A3016 RMK A01 T00401007  RH  072%=      5-min Rain = 0
KHA3 161008Z 17006KT 04/M01 A3016 RMK A01 T00401007  RH  072%=      5-min Rain = 0
KHA3 161009Z 17006KT 04/M01 A3016 RMK A01 T00401007  RH  072%=      5-min Rain = 0
KHA3 161010Z 17006KT 04/M01 A3016 RMK A01 T00401007  RH  072%=      5-min Rain = 0
KHA3 161011Z 17007KT 04/M01 A3016 RMK A01 T00401007  RH  072%=      5-min Rain = 0
KHA3 161012Z 17006KT 04/M01 A3016 RMK A01 T00401006  RH  071%=      5-min Rain = 0
KHA3 161013Z 17006KT 04/M01 A3016 RMK A01 T00411007  RH  071%=      5-min Rain = 0
KHA3 161014Z 17006KT 04/M01 A3016 RMK A01 T00401007  RH  071%=      5-min Rain = 0
KHA3 161015Z 17006KT 04/M01 A3015 RMK A01 T00401007  RH  071%=      5-min Rain = 0
KHA3 161016Z 17006KT 04/M01 A3015 RMK A01 T00401007  RH  071%=      5-min Rain = 0
KHA3 161017Z 17007KT 04/M01 A3015 RMK A01 T00401007  RH  071%=      5-min Rain = 0
KHA3 161018Z 17006KT 04/M01 A3015 RMK A01 T00401007  RH  071%=      5-min Rain = 0
KHA3 161019Z 17007KT 04/M01 A3015 RMK A01 T00401007  RH  072%=      5-min Rain = 0
KHA3 161020Z 17007KT 04/M01 A3015 RMK A01 T00391007  RH  072%=      5-min Rain = 0
KHA3 161021Z 17006KT 04/M01 A3015 RMK A01 T00381008  RH  072%=      5-min Rain = 0
KHA3 161022Z 17007KT 04/M01 A3015 RMK A01 T00381008  RH  072%=      5-min Rain = 0
KHA3 161023Z 17007KT 04/M01 A3015 RMK A01 T00381008  RH  072%=      5-min Rain = 0
KHA3 161024Z 17007KT 04/M01 A3015 RMK A01 T00381007  RH  072%=      5-min Rain = 0
KHA3 161025Z 17007KT 04/M01 A3015 RMK A01 T00371007  RH  072%=      5-min Rain = 0
KHA3 161026Z 17007KT 04/M01 A3015 RMK A01 T00371007  RH  073%=      5-min Rain = 0
KHA3 161027Z 17007KT 04/M01 A3015 RMK A01 T00371007  RH  073%=      5-min Rain = 0
KHA3 161028Z 17007KT 04/M01 A3015 RMK A01 T00371007  RH  073%=      5-min Rain = 0
KHA3 161029Z 17007KT 04/M01 A3015 RMK A01 T00371007  RH  073%=      5-min Rain = 0
KHA3 161030Z 17007KT 04/M01 A3015 RMK A01 T00371007  RH  073%=      5-min Rain = 0
KHA3 161031Z 17007KT 04/M01 A3015 RMK A01 T00371007  RH  073%=      5-min Rain = 0
KHA3 161032Z 17007KT 04/M01 A3015 RMK A01 T00361008  RH  073%=      5-min Rain = 0
KHA3 161033Z 17007KT 04/M01 A3015 RMK A01 T00371007  RH  073%=      5-min Rain = 0
KHA3 161034Z 17007KT 04/M01 A3015 RMK A01 T00361007  RH  073%=      5-min Rain = 0
KHA3 161035Z 17007KT 04/M01 A3015 RMK A01 T00361007  RH  073%=      5-min Rain = 0
KHA3 161036Z 17007KT 04/M01 A3015 RMK A01 T00361007  RH  074%=      5-min Rain = 0
KHA3 161037Z 17007KT 04/M01 A3015 RMK A01 T00361007  RH  074%=      5-min Rain = 0
KHA3 161038Z 17007KT 04/M01 A3015 RMK A01 T00361007  RH  074%=      5-min Rain = 0
KHA3 161039Z 17008KT 04/M01 A3015 RMK A01 T00361007  RH  074%=      5-min Rain = 0
KHA3 161040Z 17007KT 04/M01 A3015 RMK A01 T00361006  RH  074%=      5-min Rain = 0
KHA3 161041Z 17008KT 04/M01 A3015 RMK A01 T00371006  RH  074%=      5-min Rain = 0
KHA3 161042Z 17008KT 04/M01 A3015 RMK A01 T00371006  RH  074%=      5-min Rain = 0
KHA3 161043Z 17007KT 04/M01 A3015 RMK A01 T00371006  RH  074%=      5-min Rain = 0
KHA3 161044Z 17007KT 04/M01 A3015 RMK A01 T00371006  RH  073%=      5-min Rain = 0
KHA3 161045Z 17008KT 04/M01 A3015 RMK A01 T00381006  RH  073%=      5-min Rain = 0
KHA3 161046Z 17007KT 04/M01 A3015 RMK A01 T00381006  RH  073%=      5-min Rain = 0
KHA3 161047Z 17007KT 04/M01 A3015 RMK A01 T00371006  RH  074%=      5-min Rain = 0
KHA3 161048Z 17007KT 04/M01 A3015 RMK A01 T00371006  RH  074%=      5-min Rain = 0
KHA3 161049Z 17007KT 04/M01 A3015 RMK A01 T00371006  RH  073%=      5-min Rain = 0
KHA3 161050Z 18007KT 04/M01 A3015 RMK A01 T00371005  RH  074%=      5-min Rain = 0
KHA3 161051Z 18008KT 04/M01 A3015 RMK A01 T00371005  RH  074%=      5-min Rain = 0
KHA3 161052Z 18007KT 04/M01 A3015 RMK A01 T00371005  RH  074%=      5-min Rain = 0
KHA3 161053Z 18007KT 04/M01 A3015 RMK A01 T00381005  RH  073%=      5-min Rain = 0
KHA3 161054Z 18007KT 04/M01 A3015 RMK A01 T00381005  RH  073%=      5-min Rain = 0
KHA3 161055Z 18007KT 04/M01 A3015 RMK A01 T00381005  RH  073%=      5-min Rain = 0
KHA3 161056Z 18007KT 04/M01 A3015 RMK A01 T00381005  RH  074%=      5-min Rain = 0
KHA3 161057Z 18007KT 04/M01 A3015 RMK A01 T00381005  RH  074%=      5-min Rain = 0
KHA3 161058Z 18007KT 04/M01 A3015 RMK A01 T00381005  RH  074%=      5-min Rain = 0
KHA3 161059Z 18007KT 04/M01 A3015 RMK A01 T00381005  RH  074%=      5-min Rain = 0
KHA3 161100Z 18007KT 04/M01 A3015 RMK A01 T00371005  RH  074%=      5-min Rain = 0
KHA3 161101Z 18007KT 04/M01 A3015 RMK A01 T00371005  RH  074%=      5-min Rain = 0
KHA3 161102Z 17007KT 04/M01 A3015 RMK A01 T00361005  RH  074%=      5-min Rain = 0
KHA3 161103Z 17007KT 04/M01 A3015 RMK A01 T00361005  RH  074%=      5-min Rain = 0
KHA3 161104Z 18007KT 04/M01 A3015 RMK A01 T00351006  RH  075%=      5-min Rain = 0
KHA3 161105Z 18007KT 04/M01 A3015 RMK A01 T00351006  RH  075%=      5-min Rain = 0
KHA3 161106Z 18007KT 03/M01 A3015 RMK A01 T00341006  RH  075%=      5-min Rain = 0
KHA3 161107Z 18007KT 03/M01 A3015 RMK A01 T00341006  RH  075%=      5-min Rain = 0
KHA3 161108Z 18007KT 03/M01 A3015 RMK A01 T00341006  RH  075%=      5-min Rain = 0
KHA3 161109Z 17007KT 03/M01 A3015 RMK A01 T00341006  RH  075%=      5-min Rain = 0
KHA3 161110Z 17007KT 03/M01 A3015 RMK A01 T00331007  RH  075%=      5-min Rain = 0
KHA3 161111Z 17007KT 03/M01 A3015 RMK A01 T00331007  RH  075%=      5-min Rain = 0
KHA3 161112Z 17006KT 03/M01 A3015 RMK A01 T00321007  RH  075%=      5-min Rain = 0
KHA3 161113Z 17006KT 03/M01 A3015 RMK A01 T00321007  RH  075%=      5-min Rain = 0
KHA3 161114Z 17006KT 03/M01 A3015 RMK A01 T00321007  RH  076%=      5-min Rain = 0
KHA3 161115Z 17006KT 03/M01 A3015 RMK A01 T00311008  RH  076%=      5-min Rain = 0
KHA3 161116Z 17006KT 03/M01 A3015 RMK A01 T00311008  RH  076%=      5-min Rain = 0
KHA3 161117Z 17006KT 03/M01 A3015 RMK A01 T00311007  RH  076%=      5-min Rain = 0
KHA3 161118Z 17006KT 03/M01 A3015 RMK A01 T00311008  RH  076%=      5-min Rain = 0
KHA3 161119Z 17006KT 03/M01 A3015 RMK A01 T00311008  RH  076%=      5-min Rain = 0
KHA3 161120Z 18006KT 03/M01 A3015 RMK A01 T00311008  RH  076%=      5-min Rain = 0
KHA3 161121Z 17006KT 03/M01 A3015 RMK A01 T00311008  RH  076%=      5-min Rain = 0
KHA3 161122Z 17006KT 03/M01 A3015 RMK A01 T00321007  RH  076%=      5-min Rain = 0
KHA3 161123Z 17006KT 03/M01 A3015 RMK A01 T00311008  RH  076%=      5-min Rain = 0
KHA3 161124Z 17006KT 03/M01 A3015 RMK A01 T00311008  RH  076%=      5-min Rain = 0
KHA3 161125Z 17006KT 03/M01 A3015 RMK A01 T00311008  RH  076%=      5-min Rain = 0
KHA3 161126Z 18006KT 03/M01 A3015 RMK A01 T00311008  RH  076%=      5-min Rain = 0
KHA3 161127Z 18006KT 03/M01 A3015 RMK A01 T00311008  RH  076%=      5-min Rain = 0
KHA3 161128Z 18006KT 03/M01 A3015 RMK A01 T00311007  RH  076%=      5-min Rain = 0
KHA3 161129Z 18006KT 03/M01 A3015 RMK A01 T00311007  RH  076%=      5-min Rain = 0
KHA3 161130Z 18006KT 03/M01 A3015 RMK A01 T00311007  RH  076%=      5-min Rain = 0
KHA3 161131Z 18006KT 03/M01 A3015 RMK A01 T00311007  RH  076%=      5-min Rain = 0
KHA3 161132Z 18006KT 03/M01 A3015 RMK A01 T00301008  RH  076%=      5-min Rain = 0
KHA3 161133Z 18007KT 03/M01 A3015 RMK A01 T00291008  RH  077%=      5-min Rain = 0
KHA3 161134Z 18007KT 03/M01 A3015 RMK A01 T00271009  RH  077%=      5-min Rain = 0
KHA3 161135Z 18007KT 03/M01 A3015 RMK A01 T00271008  RH  078%=      5-min Rain = 0
KHA3 161136Z 18007KT 03/M01 A3015 RMK A01 T00271007  RH  078%=      5-min Rain = 0
KHA3 161137Z 18007KT 03/M01 A3015 RMK A01 T00271007  RH  078%=      5-min Rain = 0
KHA3 161138Z 18007KT 03/M01 A3015 RMK A01 T00271007  RH  078%=      5-min Rain = 0
KHA3 161139Z 18007KT 03/M01 A3015 RMK A01 T00271007  RH  078%=      5-min Rain = 0
KHA3 161140Z 18007KT 03/M01 A3015 RMK A01 T00281007  RH  078%=      5-min Rain = 0
KHA3 161141Z 18007KT 03/M01 A3015 RMK A01 T00271007  RH  078%=      5-min Rain = 0
KHA3 161142Z 18007KT 03/M01 A3015 RMK A01 T00271007  RH  078%=      5-min Rain = 0
KHA3 161143Z 18007KT 03/M01 A3015 RMK A01 T00271007  RH  078%=      5-min Rain = 0
KHA3 161144Z 18007KT 03/M01 A3015 RMK A01 T00281006  RH  078%=      5-min Rain = 0
KHA3 161145Z 18006KT 03/M01 A3015 RMK A01 T00281007  RH  078%=      5-min Rain = 0
KHA3 161146Z 18007KT 03/M01 A3015 RMK A01 T00281007  RH  078%=      5-min Rain = 0
KHA3 161147Z 18007KT 03/M01 A3015 RMK A01 T00291007  RH  078%=      5-min Rain = 0
KHA3 161148Z 18006KT 03/M01 A3015 RMK A01 T00291006  RH  078%=      5-min Rain = 0
KHA3 161149Z 18007KT 03/M01 A3015 RMK A01 T00291007  RH  078%=      5-min Rain = 0
KHA3 161150Z 18007KT 03/M01 A3015 RMK A01 T00291006  RH  077%=      5-min Rain = 0
KHA3 161151Z 18007KT 03/M01 A3015 RMK A01 T00301006  RH  077%=      5-min Rain = 0
KHA3 161152Z 18007KT 03/M01 A3015 RMK A01 T00301006  RH  077%=      5-min Rain = 0
KHA3 161153Z 18007KT 03/M01 A3015 RMK A01 T00301006  RH  077%=      5-min Rain = 0
KHA3 161154Z 18007KT 03/M01 A3015 RMK A01 T00301006  RH  077%=      5-min Rain = 0
KHA3 161155Z 18007KT 03/M01 A3015 RMK A01 T00301006  RH  077%=      5-min Rain = 0
KHA3 161156Z 18007KT 03/M01 A3015 RMK A01 T00301005  RH  077%=      5-min Rain = 0
KHA3 161157Z 18007KT 03/M01 A3015 RMK A01 T00301005  RH  077%=      5-min Rain = 0
KHA3 161158Z 18007KT 03/M01 A3015 RMK A01 T00301005  RH  077%=      5-min Rain = 0
KHA3 161159Z 18007KT 03/M01 A3015 RMK A01 T00301005  RH  077%=      5-min Rain = 0
KHA3 161200Z 18007KT 03/M01 A3015 RMK A01 T00301005  RH  077%=      5-min Rain = 0
KHA3 161201Z 18006KT 03/M01 A3015 RMK A01 T00311005  RH  077%=      5-min Rain = 0
KHA3 161202Z 19007KT 03/M01 A3015 RMK A01 T00311005  RH  077%=      5-min Rain = 0
KHA3 161203Z 19007KT 03/M01 A3015 RMK A01 T00311005  RH  077%=      5-min Rain = 0
KHA3 161204Z 19007KT 03/M01 A3015 RMK A01 T00311005  RH  077%=      5-min Rain = 0
KHA3 161205Z 19007KT 03/M01 A3015 RMK A01 T00321005  RH  077%=      5-min Rain = 0
KHA3 161206Z 19007KT 03/M00 A3015 RMK A01 T00321004  RH  077%=      5-min Rain = 0
KHA3 161207Z 19007KT 03/M01 A3015 RMK A01 T00321005  RH  077%=      5-min Rain = 0
KHA3 161208Z 19007KT 03/M01 A3015 RMK A01 T00321005  RH  077%=      5-min Rain = 0
KHA3 161209Z 19007KT 03/M01 A3015 RMK A01 T00321005  RH  077%=      5-min Rain = 0
KHA3 161210Z 19007KT 03/M00 A3015 RMK A01 T00321004  RH  077%=      5-min Rain = 0
KHA3 161211Z 19007KT 03/M00 A3015 RMK A01 T00321004  RH  077%=      5-min Rain = 0
KHA3 161212Z 19007KT 03/M00 A3015 RMK A01 T00331004  RH  077%=      5-min Rain = 0
KHA3 161213Z 19007KT 03/M00 A3015 RMK A01 T00321004  RH  077%=      5-min Rain = 0
KHA3 161214Z 19007KT 03/M00 A3015 RMK A01 T00331004  RH  077%=      5-min Rain = 0
KHA3 161215Z 19007KT 03/M00 A3015 RMK A01 T00331003  RH  077%=      5-min Rain = 0
KHA3 161216Z 19007KT 03/M00 A3015 RMK A01 T00321004  RH  077%=      5-min Rain = 0
KHA3 161217Z 19007KT 03/M00 A3015 RMK A01 T00321004  RH  077%=      5-min Rain = 0
KHA3 161218Z 19007KT 03/M00 A3015 RMK A01 T00331004  RH  077%=      5-min Rain = 0
KHA3 161219Z 18007KT 03/M00 A3015 RMK A01 T00331004  RH  077%=      5-min Rain = 0
KHA3 161220Z 18007KT 03/M00 A3015 RMK A01 T00341003  RH  077%=      5-min Rain = 0
KHA3 161221Z 18007KT 03/M00 A3015 RMK A01 T00341004  RH  077%=      5-min Rain = 0
KHA3 161222Z 18007KT 03/M00 A3015 RMK A01 T00331004  RH  076%=      5-min Rain = 0
KHA3 161223Z 18008KT 03/M00 A3015 RMK A01 T00331004  RH  077%=      5-min Rain = 0
KHA3 161224Z 18008KT 03/M00 A3015 RMK A01 T00331004  RH  077%=      5-min Rain = 0
KHA3 161225Z 18008KT 03/M00 A3015 RMK A01 T00321004  RH  077%=      5-min Rain = 0
KHA3 161226Z 18008KT 03/M00 A3015 RMK A01 T00331004  RH  077%=      5-min Rain = 0
KHA3 161227Z 18008KT 03/M00 A3015 RMK A01 T00331004  RH  077%=      5-min Rain = 0
KHA3 161228Z 18008KT 03/M00 A3015 RMK A01 T00331004  RH  077%=      5-min Rain = 0
KHA3 161229Z 18008KT 03/M00 A3015 RMK A01 T00331004  RH  077%=      5-min Rain = 0
KHA3 161230Z 18008KT 03/M00 A3015 RMK A01 T00331004  RH  077%=      5-min Rain = 0
KHA3 161231Z 18008KT 03/M00 A3015 RMK A01 T00331004  RH  077%=      5-min Rain = 0
KHA3 161232Z 18008KT 03/M00 A3015 RMK A01 T00341004  RH  076%=      5-min Rain = 0
KHA3 161233Z 18008KT 03/M00 A3015 RMK A01 T00341004  RH  076%=      5-min Rain = 0
KHA3 161234Z 18008KT 03/M00 A3015 RMK A01 T00341004  RH  076%=      5-min Rain = 0
KHA3 161235Z 18008KT 03/M00 A3015 RMK A01 T00341004  RH  076%=      5-min Rain = 0
KHA3 161236Z 19007KT 03/M00 A3015 RMK A01 T00341004  RH  076%=      5-min Rain = 0
KHA3 161237Z 19006KT 03/M00 A3015 RMK A01 T00341004  RH  076%=      5-min Rain = 0
KHA3 161238Z 19007KT 03/M00 A3015 RMK A01 T00341004  RH  076%=      5-min Rain = 0
KHA3 161239Z 19007KT 03/M00 A3015 RMK A01 T00341004  RH  076%=      5-min Rain = 0
KHA3 161240Z 18007KT 03/M01 A3015 RMK A01 T00341005  RH  076%=      5-min Rain = 0
KHA3 161241Z 19007KT 03/M00 A3015 RMK A01 T00341004  RH  076%=      5-min Rain = 0
KHA3 161242Z 18007KT 03/M00 A3015 RMK A01 T00341004  RH  076%=      5-min Rain = 0
KHA3 161243Z 18007KT 03/M01 A3015 RMK A01 T00341005  RH  076%=      5-min Rain = 0
KHA3 161244Z 18007KT 03/M01 A3015 RMK A01 T00341005  RH  076%=      5-min Rain = 0
KHA3 161245Z 18007KT 03/M01 A3014 RMK A01 T00341005  RH  076%=      5-min Rain = 0
KHA3 161246Z 19008KT 03/M01 A3014 RMK A01 T00341005  RH  076%=      5-min Rain = 0
KHA3 161247Z 19008KT 03/M01 A3014 RMK A01 T00341005  RH  076%=      5-min Rain = 0
KHA3 161248Z 19008KT 03/M00 A3014 RMK A01 T00341004  RH  076%=      5-min Rain = 0
KHA3 161249Z 18008KT 03/M01 A3014 RMK A01 T00341005  RH  076%=      5-min Rain = 0
KHA3 161250Z 19008KT 03/M01 A3014 RMK A01 T00341005  RH  076%=      5-min Rain = 0
KHA3 161251Z 19008KT 03/M00 A3014 RMK A01 T00341004  RH  076%=      5-min Rain = 0
KHA3 161252Z 19008KT 03/M01 A3014 RMK A01 T00341005  RH  076%=      5-min Rain = 0
KHA3 161253Z 19009KT 03/M01 A3014 RMK A01 T00341005  RH  076%=      5-min Rain = 0
KHA3 161254Z 19008KT 03/M01 A3014 RMK A01 T00341005  RH  076%=      5-min Rain = 0
KHA3 161255Z 19008KT 04/M00 A3014 RMK A01 T00351004  RH  075%=      5-min Rain = 0
KHA3 161256Z 19008KT 04/M01 A3014 RMK A01 T00351005  RH  075%=      5-min Rain = 0
KHA3 161257Z 19008KT 04/M00 A3014 RMK A01 T00351004  RH  075%=      5-min Rain = 0
KHA3 161258Z 19008KT 04/M00 A3014 RMK A01 T00361003  RH  075%=      5-min Rain = 0
KHA3 161259Z 19008KT 04/M00 A3015 RMK A01 T00371003  RH  075%=      5-min Rain = 0
KHA3 161300Z 19008KT 04/M00 A3015 RMK A01 T00371003  RH  075%=      5-min Rain = 0
KHA3 161301Z 18008KT 04/M00 A3015 RMK A01 T00381003  RH  074%=      5-min Rain = 0
KHA3 161302Z 19008KT 04/M00 A3015 RMK A01 T00381003  RH  074%=      5-min Rain = 0
KHA3 161303Z 19008KT 04/M00 A3014 RMK A01 T00381003  RH  074%=      5-min Rain = 0
KHA3 161304Z 18008KT 04/M00 A3014 RMK A01 T00381003  RH  074%=      5-min Rain = 0
KHA3 161305Z 18008KT 04/M00 A3015 RMK A01 T00391004  RH  074%=      5-min Rain = 0
KHA3 161306Z 18008KT 04/M00 A3015 RMK A01 T00391003  RH  074%=      5-min Rain = 0
KHA3 161307Z 18007KT 04/M00 A3015 RMK A01 T00391003  RH  074%=      5-min Rain = 0
KHA3 161308Z 18007KT 04/M00 A3015 RMK A01 T00391003  RH  074%=      5-min Rain = 0
KHA3 161309Z 18007KT 04/M00 A3015 RMK A01 T00391003  RH  074%=      5-min Rain = 0
KHA3 161310Z 18007KT 04/M00 A3015 RMK A01 T00381004  RH  074%=      5-min Rain = 0
KHA3 161311Z 18008KT 04/M00 A3015 RMK A01 T00381004  RH  074%=      5-min Rain = 0
KHA3 161312Z 18007KT 04/M00 A3015 RMK A01 T00381004  RH  074%=      5-min Rain = 0
KHA3 161313Z 18007KT 04/M00 A3015 RMK A01 T00391003  RH  074%=      5-min Rain = 0
KHA3 161314Z 18007KT 04/M00 A3015 RMK A01 T00381003  RH  074%=      5-min Rain = 0
KHA3 161315Z 18007KT 04/M00 A3015 RMK A01 T00381004  RH  074%=      5-min Rain = 0
KHA3 161316Z 19007KT 04/M00 A3015 RMK A01 T00391003  RH  074%=      5-min Rain = 0
KHA3 161317Z 18007KT 04/M00 A3015 RMK A01 T00391004  RH  074%=      5-min Rain = 0
KHA3 161318Z 19007KT 04/M00 A3015 RMK A01 T00391003  RH  074%=      5-min Rain = 0
KHA3 161319Z 18007KT 04/M00 A3015 RMK A01 T00391004  RH  074%=      5-min Rain = 0
KHA3 161320Z 19007KT 04/M00 A3015 RMK A01 T00401003  RH  073%=      5-min Rain = 0
KHA3 161321Z 19007KT 04/M00 A3015 RMK A01 T00401003  RH  074%=      5-min Rain = 0
KHA3 161322Z 19007KT 04/M00 A3015 RMK A01 T00401003  RH  074%=      5-min Rain = 0
KHA3 161323Z 19007KT 04/M00 A3015 RMK A01 T00401003  RH  074%=      5-min Rain = 0
KHA3 161324Z 18007KT 04/M00 A3015 RMK A01 T00401003  RH  073%=      5-min Rain = 0
KHA3 161325Z 18008KT 04/M00 A3015 RMK A01 T00411003  RH  073%=      5-min Rain = 0
KHA3 161326Z 18007KT 04/M00 A3015 RMK A01 T00411003  RH  073%=      5-min Rain = 0
KHA3 161327Z 18007KT 04/M00 A3015 RMK A01 T00421003  RH  073%=      5-min Rain = 0
KHA3 161328Z 18008KT 04/M00 A3015 RMK A01 T00421003  RH  073%=      5-min Rain = 0
KHA3 161329Z 18008KT 04/M00 A3015 RMK A01 T00421002  RH  073%=      5-min Rain = 0
KHA3 161330Z 18007KT 04/M00 A3015 RMK A01 T00421003  RH  073%=      5-min Rain = 0
KHA3 161331Z 18008KT 04/M00 A3015 RMK A01 T00421003  RH  073%=      5-min Rain = 0
KHA3 161332Z 18008KT 04/M00 A3015 RMK A01 T00421003  RH  073%=      5-min Rain = 0
KHA3 161333Z 18007KT 04/M00 A3015 RMK A01 T00431002  RH  072%=      5-min Rain = 0
KHA3 161334Z 19007KT 04/M00 A3015 RMK A01 T00431002  RH  072%=      5-min Rain = 0
KHA3 161335Z 18008KT 04/M00 A3015 RMK A01 T00441002  RH  072%=      5-min Rain = 0
KHA3 161336Z 18008KT 04/M00 A3015 RMK A01 T00441002  RH  072%=      5-min Rain = 0
KHA3 161337Z 18008KT 05/M00 A3015 RMK A01 T00461002  RH  071%=      5-min Rain = 0
KHA3 161338Z 18008KT 05/M00 A3015 RMK A01 T00461002  RH  071%=      5-min Rain = 0
KHA3 161339Z 18008KT 05/M00 A3015 RMK A01 T00461001  RH  071%=      5-min Rain = 0
KHA3 161340Z 18008KT 05/M00 A3015 RMK A01 T00471001  RH  071%=      5-min Rain = 0
KHA3 161341Z 18008KT 05/M00 A3015 RMK A01 T00481001  RH  071%=      5-min Rain = 0
KHA3 161342Z 18008KT 05/00 A3015 RMK A01 T004800-0  RH  071%=      5-min Rain = 0
KHA3 161343Z 18008KT 05/M00 A3015 RMK A01 T00491001  RH  070%=      5-min Rain = 0
KHA3 161344Z 18008KT 05/M00 A3015 RMK A01 T00491001  RH  070%=      5-min Rain = 0
KHA3 161345Z 19009KT 05/M00 A3015 RMK A01 T00501001  RH  070%=      5-min Rain = 0
KHA3 161346Z 18009KT 05/00 A3015 RMK A01 T005000-0  RH  070%=      5-min Rain = 0
KHA3 161347Z 18009KT 05/00 A3015 RMK A01 T005100-0  RH  070%=      5-min Rain = 0
KHA3 161348Z 18009KT 05/00 A3015 RMK A01 T005200-0  RH  069%=      5-min Rain = 0
KHA3 161349Z 19009KT 05/00 A3015 RMK A01 T005200-0  RH  069%=      5-min Rain = 0
KHA3 161350Z 18009KT 05/M00 A3015 RMK A01 T00521001  RH  069%=      5-min Rain = 0
KHA3 161351Z 19008KT 05/00 A3015 RMK A01 T00530000  RH  069%=      5-min Rain = 0
KHA3 161352Z 18008KT 05/00 A3015 RMK A01 T00530001  RH  069%=      5-min Rain = 0
KHA3 161353Z 18008KT 05/00 A3015 RMK A01 T00530001  RH  069%=      5-min Rain = 0
KHA3 161354Z 18008KT 05/00 A3015 RMK A01 T00530001  RH  069%=      5-min Rain = 0
KHA3 161355Z 19008KT 05/00 A3015 RMK A01 T00530001  RH  069%=      5-min Rain = 0
KHA3 161356Z 18008KT 05/00 A3015 RMK A01 T00540000  RH  069%=      5-min Rain = 0
KHA3 161357Z 18008KT 05/00 A3015 RMK A01 T00540001  RH  069%=      5-min Rain = 0
KHA3 161358Z 18008KT 05/00 A3015 RMK A01 T00540001  RH  069%=      5-min Rain = 0
KHA3 161359Z 18007KT 05/00 A3015 RMK A01 T00540001  RH  069%=      5-min Rain = 0
KHA3 161400Z 19008KT 06/00 A3015 RMK A01 T00550002  RH  069%=      5-min Rain = 0
KHA3 161401Z 19008KT 06/00 A3015 RMK A01 T00550001  RH  068%=      5-min Rain = 0
KHA3 161402Z 18008KT 06/00 A3015 RMK A01 T00560002  RH  068%=      5-min Rain = 0
KHA3 161403Z 19007KT 06/00 A3015 RMK A01 T00560002  RH  068%=      5-min Rain = 0
KHA3 161404Z 18008KT 06/00 A3015 RMK A01 T00570002  RH  068%=      5-min Rain = 0
KHA3 161405Z 19007KT 06/00 A3015 RMK A01 T00570002  RH  067%=      5-min Rain = 0
KHA3 161406Z 18008KT 06/00 A3015 RMK A01 T00580002  RH  067%=      5-min Rain = 0
KHA3 161407Z 18007KT 06/00 A3015 RMK A01 T00580003  RH  067%=      5-min Rain = 0
KHA3 161408Z 18007KT 06/00 A3015 RMK A01 T00590003  RH  067%=      5-min Rain = 0
KHA3 161409Z 18008KT 06/00 A3015 RMK A01 T00590002  RH  067%=      5-min Rain = 0
KHA3 161410Z 19007KT 06/00 A3015 RMK A01 T00590002  RH  067%=      5-min Rain = 0
KHA3 161411Z 19008KT 06/00 A3015 RMK A01 T00590002  RH  067%=      5-min Rain = 0
KHA3 161412Z 18008KT 06/00 A3015 RMK A01 T00590002  RH  067%=      5-min Rain = 0
KHA3 161413Z 18008KT 06/00 A3015 RMK A01 T00600002  RH  066%=      5-min Rain = 0
KHA3 161414Z 18007KT 06/00 A3015 RMK A01 T00600002  RH  067%=      5-min Rain = 0
KHA3 161415Z 18008KT 06/00 A3015 RMK A01 T00600003  RH  067%=      5-min Rain = 0
KHA3 161416Z 18008KT 06/00 A3015 RMK A01 T00600002  RH  066%=      5-min Rain = 0
KHA3 161417Z 18008KT 06/00 A3015 RMK A01 T00610003  RH  066%=      5-min Rain = 0
KHA3 161418Z 18007KT 06/00 A3015 RMK A01 T00600002  RH  066%=      5-min Rain = 0
KHA3 161419Z 19008KT 06/00 A3015 RMK A01 T00600003  RH  067%=      5-min Rain = 0
KHA3 161420Z 19008KT 06/00 A3015 RMK A01 T00600003  RH  067%=      5-min Rain = 0
KHA3 161421Z 19008KT 06/00 A3015 RMK A01 T00600003  RH  067%=      5-min Rain = 0
KHA3 161422Z 18008KT 06/00 A3015 RMK A01 T00600003  RH  067%=      5-min Rain = 0
KHA3 161423Z 18008KT 06/00 A3015 RMK A01 T00600003  RH  067%=      5-min Rain = 0
KHA3 161424Z 19008KT 06/00 A3015 RMK A01 T00600003  RH  067%=      5-min Rain = 0
KHA3 161425Z 19010KT 06/00 A3015 RMK A01 T00600003  RH  067%=      5-min Rain = 0
KHA3 161426Z 19009KT 06/00 A3015 RMK A01 T00610003  RH  066%=      5-min Rain = 0
KHA3 161427Z 19009KT 06/00 A3015 RMK A01 T00620004  RH  067%=      5-min Rain = 0
KHA3 161428Z 19009KT 06/00 A3015 RMK A01 T00620004  RH  066%=      5-min Rain = 0
KHA3 161429Z 19010KT 06/00 A3015 RMK A01 T00630004  RH  066%=      5-min Rain = 0
KHA3 161430Z 19008KT 06/00 A3015 RMK A01 T00640004  RH  066%=      5-min Rain = 0
KHA3 161431Z 19010KT 07/00 A3015 RMK A01 T00650004  RH  065%=      5-min Rain = 0
KHA3 161432Z 19010KT 07/00 A3015 RMK A01 T00650004  RH  065%=      5-min Rain = 0
KHA3 161433Z 19010KT 07/01 A3015 RMK A01 T00660005  RH  065%=      5-min Rain = 0
KHA3 161434Z 19010KT 07/01 A3015 RMK A01 T00670006  RH  065%=      5-min Rain = 0
KHA3 161435Z 19010KT 07/01 A3015 RMK A01 T00680006  RH  064%=      5-min Rain = 0
KHA3 161436Z 19012KT 07/01 A3015 RMK A01 T00690005  RH  064%=      5-min Rain = 0
KHA3 161437Z 19011KT 07/00 A3015 RMK A01 T00700004  RH  063%=      5-min Rain = 0
KHA3 161438Z 19012KT 07/01 A3015 RMK A01 T00710005  RH  063%=      5-min Rain = 0
KHA3 161439Z 19010KT 07/01 A3015 RMK A01 T00720005  RH  063%=      5-min Rain = 0
KHA3 161440Z 19010KT 07/01 A3015 RMK A01 T00730007  RH  063%=      5-min Rain = 0
KHA3 161441Z 19013KT 07/01 A3015 RMK A01 T00740006  RH  062%=      5-min Rain = 0
KHA3 161442Z 19011KT 08/01 A3015 RMK A01 T00750005  RH  061%=      5-min Rain = 0
KHA3 161443Z 19011KT 08/01 A3015 RMK A01 T00750005  RH  061%=      5-min Rain = 0
KHA3 161444Z 19012KT 08/01 A3015 RMK A01 T00760006  RH  061%=      5-min Rain = 0
KHA3 161445Z 19011KT 08/01 A3014 RMK A01 T00760006  RH  061%=      5-min Rain = 0
KHA3 161446Z 19012KT 08/01 A3014 RMK A01 T00750005  RH  061%=      5-min Rain = 0
KHA3 161447Z 19012KT 08/01 A3014 RMK A01 T00750006  RH  061%=      5-min Rain = 0
KHA3 161448Z 19012KT 08/01 A3014 RMK A01 T00750005  RH  061%=      5-min Rain = 0
KHA3 161449Z 19011KT 08/01 A3014 RMK A01 T00750005  RH  061%=      5-min Rain = 0
KHA3 161450Z 19009KT 08/01 A3014 RMK A01 T00760006  RH  061%=      5-min Rain = 0
KHA3 161451Z 19009KT 08/01 A3014 RMK A01 T00770008  RH  062%=      5-min Rain = 0
KHA3 161452Z 19010KT 08/01 A3014 RMK A01 T00770008  RH  062%=      5-min Rain = 0
KHA3 161453Z 19009KT 08/01 A3014 RMK A01 T00780008  RH  061%=      5-min Rain = 0
KHA3 161454Z 19009KT 08/01 A3014 RMK A01 T00780009  RH  062%=      5-min Rain = 0
KHA3 161455Z 20010KT 08/01 A3014 RMK A01 T00800010  RH  061%=      5-min Rain = 0
KHA3 161456Z 19010KT 08/01 A3014 RMK A01 T00820010  RH  060%=      5-min Rain = 0
KHA3 161457Z 19010KT 08/01 A3014 RMK A01 T00830010  RH  060%=      5-min Rain = 0
KHA3 161458Z 20010KT 08/01 A3014 RMK A01 T00830010  RH  060%=      5-min Rain = 0
KHA3 161459Z 18010KT 08/01 A3014 RMK A01 T00840011  RH  060%=      5-min Rain = 0
KHA3 161500Z 19009KT 09/01 A3014 RMK A01 T00850011  RH  060%=      5-min Rain = 0
KHA3 161501Z 18011KT 09/01 A3014 RMK A01 T00860011  RH  059%=      5-min Rain = 0
KHA3 161502Z 19011KT 09/01 A3014 RMK A01 T00860011  RH  059%=      5-min Rain = 0
KHA3 161503Z 19010KT 09/01 A3014 RMK A01 T00860012  RH  060%=      5-min Rain = 0
KHA3 161504Z 19011KT 09/01 A3014 RMK A01 T00880013  RH  059%=      5-min Rain = 0
KHA3 161505Z 19010KT 09/01 A3014 RMK A01 T00900012  RH  058%=      5-min Rain = 0
KHA3 161506Z 20008KT 09/01 A3014 RMK A01 T00900012  RH  058%=      5-min Rain = 0
KHA3 161507Z 19012KT 09/01 A3014 RMK A01 T00920013  RH  058%=      5-min Rain = 0
KHA3 161508Z 19013KT 09/01 A3014 RMK A01 T00930011  RH  057%=      5-min Rain = 0
KHA3 161509Z 19011KT 09/01 A3014 RMK A01 T00930011  RH  057%=      5-min Rain = 0
KHA3 161510Z 19012KT 09/01 A3014 RMK A01 T00930012  RH  057%=      5-min Rain = 0
KHA3 161511Z 19011KT 10/01 A3014 RMK A01 T00950011  RH  056%=      5-min Rain = 0
KHA3 161512Z 19011KT 10/01 A3014 RMK A01 T00950011  RH  056%=      5-min Rain = 0
KHA3 161513Z 18012KT 10/01 A3014 RMK A01 T00950011  RH  056%=      5-min Rain = 0
KHA3 161514Z 20011KT 09/01 A3014 RMK A01 T00940010  RH  056%=      5-min Rain = 0
KHA3 161515Z 19011KT 10/01 A3014 RMK A01 T00950012  RH  056%=      5-min Rain = 0
KHA3 161516Z 20012KT 10/01 A3014 RMK A01 T00960012  RH  056%=      5-min Rain = 0
KHA3 161517Z 20012KT 10/01 A3014 RMK A01 T00970012  RH  055%=      5-min Rain = 0
KHA3 161518Z 20012KT 10/01 A3014 RMK A01 T00980012  RH  055%=      5-min Rain = 0
KHA3 161519Z 20010KT 10/01 A3014 RMK A01 T00990013  RH  055%=      5-min Rain = 0
KHA3 161520Z 19010KT 10/01 A3014 RMK A01 T01010014  RH  055%=      5-min Rain = 0
KHA3 161521Z 20011KT 10/01 A3014 RMK A01 T01020014  RH  054%=      5-min Rain = 0
KHA3 161522Z 20010KT 10/01 A3014 RMK A01 T01020012  RH  054%=      5-min Rain = 0
KHA3 161523Z 20010KT 10/01 A3014 RMK A01 T01010014  RH  055%=      5-min Rain = 0
KHA3 161524Z 20010KT 10/01 A3014 RMK A01 T01010013  RH  054%=      5-min Rain = 0
KHA3 161525Z 20010KT 10/01 A3014 RMK A01 T01010014  RH  055%=      5-min Rain = 0
KHA3 161526Z 20013KT 10/01 A3014 RMK A01 T01010012  RH  054%=      5-min Rain = 0
KHA3 161527Z 20012KT 10/01 A3014 RMK A01 T01010012  RH  054%=      5-min Rain = 0
KHA3 161528Z 20014KT 10/01 A3014 RMK A01 T01000011  RH  054%=      5-min Rain = 0
KHA3 161529Z 20013KT 10/01 A3014 RMK A01 T01000012  RH  054%=      5-min Rain = 0
KHA3 161530Z 19012KT 10/01 A3014 RMK A01 T01000012  RH  054%=      5-min Rain = 0
KHA3 161531Z 20012KT 10/01 A3014 RMK A01 T01000013  RH  054%=      5-min Rain = 0
KHA3 161532Z 20011KT 10/01 A3014 RMK A01 T01000013  RH  055%=      5-min Rain = 0
KHA3 161533Z 20012KT 10/01 A3014 RMK A01 T01000013  RH  055%=      5-min Rain = 0
KHA3 161534Z 20011KT 10/01 A3014 RMK A01 T01000013  RH  055%=      5-min Rain = 0
KHA3 161535Z 20011KT 10/01 A3014 RMK A01 T01000013  RH  055%=      5-min Rain = 0
KHA3 161536Z 20014KT 10/01 A3013 RMK A01 T01010013  RH  054%=      5-min Rain = 0
KHA3 161537Z 20013KT 10/01 A3013 RMK A01 T01010012  RH  054%=      5-min Rain = 0
KHA3 161538Z 20012KT 10/01 A3013 RMK A01 T01010013  RH  054%=      5-min Rain = 0
KHA3 161539Z 20013KT 10/01 A3013 RMK A01 T01010013  RH  054%=      5-min Rain = 0
KHA3 161540Z 20012KT 10/01 A3013 RMK A01 T01020013  RH  054%=      5-min Rain = 0
KHA3 161541Z 19011KT 10/01 A3013 RMK A01 T01020014  RH  054%=      5-min Rain = 0
KHA3 161542Z 20010KT 10/01 A3013 RMK A01 T01020014  RH  054%=      5-min Rain = 0
KHA3 161543Z 20011KT 10/01 A3013 RMK A01 T01020014  RH  054%=      5-min Rain = 0
KHA3 161544Z 20011KT 10/02 A3013 RMK A01 T01030015  RH  054%=      5-min Rain = 0
KHA3 161545Z 20011KT 10/01 A3013 RMK A01 T01030014  RH  054%=      5-min Rain = 0
KHA3 161546Z 20011KT 10/02 A3013 RMK A01 T01040015  RH  054%=      5-min Rain = 0
KHA3 161547Z 20013KT 11/02 A3013 RMK A01 T01050015  RH  054%=      5-min Rain = 0
KHA3 161548Z 19012KT 11/01 A3013 RMK A01 T01060014  RH  053%=      5-min Rain = 0
KHA3 161549Z 20011KT 11/02 A3013 RMK A01 T01070015  RH  053%=      5-min Rain = 0
KHA3 161550Z 19013KT 11/02 A3013 RMK A01 T01090015  RH  052%=      5-min Rain = 0
KHA3 161551Z 19014KT 11/01 A3013 RMK A01 T01090014  RH  052%=      5-min Rain = 0
KHA3 161552Z 20013KT 11/01 A3013 RMK A01 T01100014  RH  052%=      5-min Rain = 0
KHA3 161553Z 20013KT 11/02 A3013 RMK A01 T01110015  RH  051%=      5-min Rain = 0
KHA3 161554Z 21012KT 11/02 A3013 RMK A01 T01130015  RH  051%=      5-min Rain = 0
KHA3 161555Z 20011KT 11/02 A3013 RMK A01 T01140016  RH  051%=      5-min Rain = 0
KHA3 161556Z 20014KT 12/02 A3013 RMK A01 T01150016  RH  050%=      5-min Rain = 0
KHA3 161557Z 20013KT 12/02 A3013 RMK A01 T01170016  RH  050%=      5-min Rain = 0
KHA3 161558Z 20013G18KT 12/02 A3013 RMK A01 T01180016  RH  050%=      5-min Rain = 0
KHA3 161559Z 21010KT 12/02 A3013 RMK A01 T01190017  RH  050%=      5-min Rain = 0
KHA3 161600Z 21014KT 12/02 A3013 RMK A01 T01210018  RH  049%=      5-min Rain = 0
KHA3 161601Z 20014KT 12/02 A3013 RMK A01 T01210017  RH  049%=      5-min Rain = 0
KHA3 161602Z 20014KT 12/02 A3013 RMK A01 T01220016  RH  048%=      5-min Rain = 0
KHA3 161603Z 20015KT 12/02 A3013 RMK A01 T01230017  RH  048%=      5-min Rain = 0
KHA3 161604Z 20017KT 12/02 A3013 RMK A01 T01230016  RH  048%=      5-min Rain = 0
KHA3 161605Z 20015KT 12/02 A3013 RMK A01 T01220016  RH  048%=      5-min Rain = 0
KHA3 161606Z 20019KT 12/02 A3013 RMK A01 T01220016  RH  048%=      5-min Rain = 0
KHA3 161607Z 21017G22KT 12/02 A3013 RMK A01 T01230016  RH  048%=      5-min Rain = 0
KHA3 161608Z 21019KT 12/02 A3012 RMK A01 T01220017  RH  048%=      5-min Rain = 0
KHA3 161609Z 21014KT 12/02 A3012 RMK A01 T01230017  RH  048%=      5-min Rain = 0
KHA3 161610Z 20017KT 12/02 A3013 RMK A01 T01240018  RH  048%=      5-min Rain = 0
KHA3 161611Z 21018KT 12/02 A3012 RMK A01 T01240017  RH  048%=      5-min Rain = 0
KHA3 161612Z 21015KT 12/02 A3012 RMK A01 T01240018  RH  048%=      5-min Rain = 0
KHA3 161613Z 21012KT 13/02 A3012 RMK A01 T01250020  RH  049%=      5-min Rain = 0
KHA3 161614Z 21013KT 13/02 A3012 RMK A01 T01280021  RH  048%=      5-min Rain = 0
KHA3 161615Z 21014KT 13/02 A3012 RMK A01 T01280020  RH  048%=      5-min Rain = 0
KHA3 161616Z 21014KT 13/02 A3012 RMK A01 T01280020  RH  048%=      5-min Rain = 0
KHA3 161617Z 20012KT 13/02 A3012 RMK A01 T01290021  RH  048%=      5-min Rain = 0
KHA3 161618Z 20012KT 13/02 A3012 RMK A01 T01300022  RH  048%=      5-min Rain = 0
KHA3 161619Z 20013KT 13/02 A3012 RMK A01 T01320023  RH  047%=      5-min Rain = 0
KHA3 161620Z 21014G20KT 13/02 A3012 RMK A01 T01340023  RH  047%=      5-min Rain = 0
KHA3 161621Z 21017KT 13/02 A3012 RMK A01 T01340021  RH  046%=      5-min Rain = 0
KHA3 161622Z 21017G22KT 13/02 A3012 RMK A01 T01340021  RH  046%=      5-min Rain = 0
KHA3 161623Z 21017KT 13/02 A3012 RMK A01 T01340021  RH  046%=      5-min Rain = 0
KHA3 161624Z 21016KT 14/02 A3012 RMK A01 T01350022  RH  046%=      5-min Rain = 0
KHA3 161625Z 21018KT 14/02 A3012 RMK A01 T01360021  RH  046%=      5-min Rain = 0
KHA3 161626Z 21016KT 14/02 A3012 RMK A01 T01370022  RH  046%=      5-min Rain = 0
KHA3 161627Z 21013G19KT 14/02 A3012 RMK A01 T01370022  RH  046%=      5-min Rain = 0
KHA3 161628Z 21016KT 14/02 A3012 RMK A01 T01370021  RH  045%=      5-min Rain = 0
KHA3 161629Z 21014KT 14/02 A3012 RMK A01 T01370021  RH  045%=      5-min Rain = 0
KHA3 161630Z 20014KT 14/02 A3012 RMK A01 T01380023  RH  046%=      5-min Rain = 0
KHA3 161631Z 20015KT 14/02 A3012 RMK A01 T01410023  RH  045%=      5-min Rain = 0
KHA3 161632Z 20016KT 14/02 A3012 RMK A01 T01410022  RH  044%=      5-min Rain = 0
KHA3 161633Z 19015KT 14/02 A3012 RMK A01 T01410022  RH  044%=      5-min Rain = 0
KHA3 161634Z 20016KT 14/02 A3012 RMK A01 T01420023  RH  044%=      5-min Rain = 0
KHA3 161635Z 20017KT 14/02 A3012 RMK A01 T01440023  RH  044%=      5-min Rain = 0
KHA3 161636Z 20018KT 15/02 A3012 RMK A01 T01450022  RH  044%=      5-min Rain = 0
KHA3 161637Z 20017KT 15/02 A3012 RMK A01 T01450022  RH  043%=      5-min Rain = 0
KHA3 161638Z 21017KT 15/02 A3012 RMK A01 T01460022  RH  043%=      5-min Rain = 0
KHA3 161639Z 20016KT 15/02 A3012 RMK A01 T01460022  RH  043%=      5-min Rain = 0
KHA3 161640Z 21016KT 15/02 A3012 RMK A01 T01470023  RH  043%=      5-min Rain = 0
KHA3 161641Z 20015KT 15/02 A3012 RMK A01 T01470022  RH  043%=      5-min Rain = 0
KHA3 161642Z 21014KT 15/02 A3012 RMK A01 T01460022  RH  043%=      5-min Rain = 0
KHA3 161643Z 20015KT 15/02 A3012 RMK A01 T01470022  RH  043%=      5-min Rain = 0
KHA3 161644Z 19014KT 15/02 A3012 RMK A01 T01470022  RH  043%=      5-min Rain = 0
KHA3 161645Z 20016KT 15/02 A3012 RMK A01 T01480023  RH  043%=      5-min Rain = 0
KHA3 161646Z 20015KT 15/02 A3012 RMK A01 T01490021  RH  042%=      5-min Rain = 0
KHA3 161647Z 20016KT 15/02 A3012 RMK A01 T01480021  RH  042%=      5-min Rain = 0
KHA3 161648Z 20014KT 15/02 A3012 RMK A01 T01480022  RH  043%=      5-min Rain = 0
KHA3 161649Z 20016KT 15/02 A3012 RMK A01 T01490021  RH  042%=      5-min Rain = 0
KHA3 161650Z 20015KT 15/02 A3012 RMK A01 T01490022  RH  042%=      5-min Rain = 0
KHA3 161651Z 20016KT 15/02 A3012 RMK A01 T01490022  RH  042%=      5-min Rain = 0
KHA3 161652Z 20015KT 15/02 A3011 RMK A01 T01490022  RH  042%=      5-min Rain = 0
KHA3 161653Z 20015KT 15/02 A3011 RMK A01 T01490023  RH  043%=      5-min Rain = 0
KHA3 161654Z 20016KT 15/02 A3011 RMK A01 T01490022  RH  042%=      5-min Rain = 0
KHA3 161655Z 18015KT 15/02 A3011 RMK A01 T01490022  RH  042%=      5-min Rain = 0
KHA3 161656Z 19015KT 15/02 A3011 RMK A01 T01480021  RH  042%=      5-min Rain = 0
KHA3 161657Z 19016KT 15/02 A3011 RMK A01 T01460020  RH  043%=      5-min Rain = 0
KHA3 161658Z 20016KT 14/02 A3011 RMK A01 T01440020  RH  043%=      5-min Rain = 0
KHA3 161659Z 20015KT 14/02 A3011 RMK A01 T01440019  RH  043%=      5-min Rain = 0
KHA3 161700Z 19015KT 14/02 A3011 RMK A01 T01440020  RH  043%=      5-min Rain = 0
KHA3 161701Z 19016KT 14/02 A3011 RMK A01 T01440019  RH  043%=      5-min Rain = 0
KHA3 161702Z 19014KT 15/02 A3011 RMK A01 T01450020  RH  043%=      5-min Rain = 0
KHA3 161703Z 20014KT 15/02 A3011 RMK A01 T01450020  RH  043%=      5-min Rain = 0
KHA3 161704Z 21015KT 15/02 A3011 RMK A01 T01470020  RH  042%=      5-min Rain = 0
KHA3 161705Z 21013KT 15/02 A3011 RMK A01 T01470021  RH  043%=      5-min Rain = 0
KHA3 161706Z 20013KT 15/02 A3011 RMK A01 T01510023  RH  042%=      5-min Rain = 0
KHA3 161707Z 20012G18KT 15/02 A3011 RMK A01 T01540022  RH  041%=      5-min Rain = 0
KHA3 161708Z 20016KT 15/02 A3011 RMK A01 T01530020  RH  041%=      5-min Rain = 0
KHA3 161709Z 21016KT 15/02 A3011 RMK A01 T01490018  RH  041%=      5-min Rain = 0
KHA3 161710Z 20012KT 15/02 A3011 RMK A01 T01460020  RH  042%=      5-min Rain = 0
KHA3 161711Z 20013KT 15/02 A3011 RMK A01 T01470021  RH  042%=      5-min Rain = 0
KHA3 161712Z 20012KT 15/02 A3011 RMK A01 T01480021  RH  042%=      5-min Rain = 0
KHA3 161713Z 19011KT 15/02 A3011 RMK A01 T01500024  RH  043%=      5-min Rain = 0
KHA3 161714Z 20011KT 15/02 A3011 RMK A01 T01530024  RH  042%=      5-min Rain = 0
KHA3 161715Z 20012KT 15/02 A301 RMK A01 T01530022  RH  041%=      5-min Rain = 0
KHA3 161716Z 20013KT 15/02 A301 RMK A01 T01520022  RH  042%=      5-min Rain = 0
KHA3 161717Z 20016KT 15/02 A301 RMK A01 T01520021  RH  041%=      5-min Rain = 0
KHA3 161718Z 19014KT 15/02 A301 RMK A01 T01520022  RH  042%=      5-min Rain = 0
KHA3 161719Z 19015KT 15/02 A301 RMK A01 T01520022  RH  042%=      5-min Rain = 0
KHA3 161720Z 20015KT 15/02 A301 RMK A01 T01500021  RH  042%=      5-min Rain = 0
KHA3 161721Z 20016KT 15/02 A301 RMK A01 T01490021  RH  042%=      5-min Rain = 0
KHA3 161722Z 20016KT 15/02 A301 RMK A01 T01480022  RH  042%=      5-min Rain = 0
KHA3 161723Z 20016KT 15/02 A301 RMK A01 T01470022  RH  043%=      5-min Rain = 0
KHA3 161724Z 20016KT 15/02 A301 RMK A01 T01470022  RH  043%=      5-min Rain = 0
KHA3 161725Z 20014KT 15/02 A301 RMK A01 T01470023  RH  043%=      5-min Rain = 0
KHA3 161726Z 20014KT 15/02 A301 RMK A01 T01480024  RH  043%=      5-min Rain = 0
KHA3 161727Z 20013KT 15/02 A301 RMK A01 T01480024  RH  043%=      5-min Rain = 0
KHA3 161728Z 21011KT 15/03 A301 RMK A01 T01480025  RH  043%=      5-min Rain = 0
KHA3 161729Z 20012KT 15/03 A301 RMK A01 T01500026  RH  043%=      5-min Rain = 0
KHA3 161730Z 21012KT 15/03 A301 RMK A01 T01500025  RH  043%=      5-min Rain = 0
KHA3 161731Z 21012KT 15/03 A301 RMK A01 T01500026  RH  043%=      5-min Rain = 0
KHA3 161732Z 20014KT 15/03 A301 RMK A01 T01500026  RH  043%=      5-min Rain = 0
KHA3 161733Z 19014KT 15/02 A301 RMK A01 T01480024  RH  043%=      5-min Rain = 0
KHA3 161734Z 20013KT 15/02 A301 RMK A01 T01450024  RH  044%=      5-min Rain = 0
KHA3 161735Z 20015KT 15/03 A301 RMK A01 T01460025  RH  044%=      5-min Rain = 0
KHA3 161736Z 20013KT 15/02 A301 RMK A01 T01460024  RH  044%=      5-min Rain = 0
KHA3 161737Z 19011KT 15/03 A301 RMK A01 T01460026  RH  044%=      5-min Rain = 0
KHA3 161738Z 19014KT 15/03 A3009 RMK A01 T01490027  RH  044%=      5-min Rain = 0
KHA3 161739Z 20014KT 15/03 A3009 RMK A01 T01500026  RH  043%=      5-min Rain = 0
KHA3 161740Z 20013KT 15/03 A3009 RMK A01 T01500027  RH  044%=      5-min Rain = 0
KHA3 161741Z 21014KT 15/03 A3009 RMK A01 T01500027  RH  043%=      5-min Rain = 0
KHA3 161742Z 21014KT 15/03 A3009 RMK A01 T01510027  RH  043%=      5-min Rain = 0
KHA3 161743Z 20012KT 15/03 A3009 RMK A01 T01510027  RH  043%=      5-min Rain = 0
KHA3 161744Z 20012KT 15/03 A3009 RMK A01 T01530029  RH  043%=      5-min Rain = 0
KHA3 161745Z 19011KT 16/03 A3009 RMK A01 T01560030  RH  043%=      5-min Rain = 0
KHA3 161746Z 19012KT 16/03 A3009 RMK A01 T01570029  RH  042%=      5-min Rain = 0
KHA3 161747Z 19015KT 16/03 A3009 RMK A01 T01560028  RH  042%=      5-min Rain = 0
KHA3 161748Z 19015KT 15/03 A3009 RMK A01 T01540026  RH  042%=      5-min Rain = 0
KHA3 161749Z 19013KT 15/03 A3009 RMK A01 T01510026  RH  043%=      5-min Rain = 0
KHA3 161750Z 20013KT 15/03 A3009 RMK A01 T01510028  RH  043%=      5-min Rain = 0
KHA3 161751Z 21014KT 15/03 A3009 RMK A01 T01530027  RH  043%=      5-min Rain = 0
KHA3 161752Z 21015KT 15/03 A3009 RMK A01 T01530028  RH  043%=      5-min Rain = 0
KHA3 161753Z 20014KT 15/03 A3009 RMK A01 T01530028  RH  043%=      5-min Rain = 0
KHA3 161754Z 20015KT 15/03 A3009 RMK A01 T01540028  RH  043%=      5-min Rain = 0
KHA3 161755Z 21014KT 16/03 A3009 RMK A01 T01550028  RH  043%=      5-min Rain = 0
KHA3 161756Z 21014KT 16/03 A3008 RMK A01 T01550028  RH  042%=      5-min Rain = 0
KHA3 161757Z 22013KT 16/03 A3009 RMK A01 T01550027  RH  042%=      5-min Rain = 0
KHA3 161758Z 21012KT 15/03 A3008 RMK A01 T01540028  RH  043%=      5-min Rain = 0
KHA3 161759Z 21012KT 16/03 A3008 RMK A01 T01560029  RH  043%=      5-min Rain = 0
KHA3 161800Z 21012KT 16/03 A3008 RMK A01 T01570029  RH  042%=      5-min Rain = 0
KHA3 161801Z 20012KT 16/03 A3008 RMK A01 T01600031  RH  042%=      5-min Rain = 0
KHA3 161802Z 20013KT 16/03 A3008 RMK A01 T01600029  RH  041%=      5-min Rain = 0
KHA3 161803Z 18014KT 16/03 A3008 RMK A01 T01600029  RH  041%=      5-min Rain = 0
KHA3 161804Z 20013KT 16/03 A3008 RMK A01 T01600030  RH  042%=      5-min Rain = 0
KHA3 161805Z 20015KT 16/03 A3008 RMK A01 T01610030  RH  041%=      5-min Rain = 0
KHA3 161806Z 20014KT 16/03 A3008 RMK A01 T01610029  RH  041%=      5-min Rain = 0
KHA3 161807Z 20012KT 16/03 A3008 RMK A01 T01600029  RH  041%=      5-min Rain = 0
KHA3 161808Z 21013KT 16/03 A3008 RMK A01 T01600031  RH  042%=      5-min Rain = 0
KHA3 161809Z 20013KT 16/03 A3008 RMK A01 T01620030  RH  041%=      5-min Rain = 0
KHA3 161810Z 18014KT 16/03 A3008 RMK A01 T01640031  RH  041%=      5-min Rain = 0
KHA3 161811Z 19015KT 16/03 A3008 RMK A01 T01640030  RH  041%=      5-min Rain = 0
KHA3 161812Z 18016KT 16/03 A3008 RMK A01 T01610028  RH  041%=      5-min Rain = 0
KHA3 161813Z 19016KT 16/03 A3008 RMK A01 T01590028  RH  042%=      5-min Rain = 0
KHA3 161814Z 19014KT 16/03 A3008 RMK A01 T01580029  RH  042%=      5-min Rain = 0
KHA3 161815Z 19013KT 16/03 A3008 RMK A01 T01580029  RH  042%=      5-min Rain = 0
KHA3 161816Z 19013KT 16/03 A3008 RMK A01 T01590031  RH  042%=      5-min Rain = 0
KHA3 161817Z 20011KT 16/03 A3008 RMK A01 T01600030  RH  042%=      5-min Rain = 0
KHA3 161818Z 19011KT 16/03 A3007 RMK A01 T01600031  RH  042%=      5-min Rain = 0
KHA3 161819Z 18014KT 16/03 A3007 RMK A01 T01620032  RH  042%=      5-min Rain = 0
KHA3 161820Z 19012KT 16/03 A3007 RMK A01 T01630031  RH  041%=      5-min Rain = 0
KHA3 161821Z 19011KT 16/03 A3007 RMK A01 T01610030  RH  041%=      5-min Rain = 0
KHA3 161822Z 19013KT 16/03 A3007 RMK A01 T01610031  RH  042%=      5-min Rain = 0
KHA3 161823Z 19011KT 16/03 A3007 RMK A01 T01610030  RH  042%=      5-min Rain = 0
KHA3 161824Z 18013KT 16/03 A3007 RMK A01 T01620032  RH  042%=      5-min Rain = 0
KHA3 161825Z 18010KT 16/03 A3007 RMK A01 T01620031  RH  041%=      5-min Rain = 0
KHA3 161826Z 19010KT 16/03 A3007 RMK A01 T01610031  RH  042%=      5-min Rain = 0
KHA3 161827Z 18009KT 16/03 A3007 RMK A01 T01610031  RH  042%=      5-min Rain = 0
KHA3 161828Z 18011KT 16/03 A3007 RMK A01 T01610031  RH  042%=      5-min Rain = 0
KHA3 161829Z 17011KT 16/03 A3007 RMK A01 T01610032  RH  042%=      5-min Rain = 0
KHA3 161830Z 18011KT 16/03 A3007 RMK A01 T01610032  RH  042%=      5-min Rain = 0
KHA3 161831Z 19011KT 16/03 A3007 RMK A01 T01620032  RH  042%=      5-min Rain = 0
KHA3 161832Z 18012KT 16/03 A3007 RMK A01 T01620033  RH  042%=      5-min Rain = 0
KHA3 161833Z 18010KT 16/03 A3007 RMK A01 T01610032  RH  042%=      5-min Rain = 0
KHA3 161834Z 19010KT 16/03 A3007 RMK A01 T01610032  RH  042%=      5-min Rain = 0
KHA3 161835Z 20013KT 16/03 A3006 RMK A01 T01620032  RH  042%=      5-min Rain = 0
KHA3 161836Z 20014KT 16/03 A3006 RMK A01 T01620032  RH  042%=      5-min Rain = 0
KHA3 161837Z 20012KT 16/03 A3006 RMK A01 T01630031  RH  041%=      5-min Rain = 0
KHA3 161838Z 19012KT 16/03 A3006 RMK A01 T01630032  RH  041%=      5-min Rain = 0
KHA3 161839Z 20015KT 16/03 A3006 RMK A01 T01640032  RH  041%=      5-min Rain = 0
KHA3 161840Z 20013KT 16/03 A3006 RMK A01 T01640032  RH  041%=      5-min Rain = 0
KHA3 161841Z 20012KT 16/03 A3006 RMK A01 T01640032  RH  041%=      5-min Rain = 0
KHA3 161842Z 19011KT 17/03 A3006 RMK A01 T01650033  RH  041%=      5-min Rain = 0
KHA3 161843Z 20012KT 17/03 A3006 RMK A01 T01660033  RH  041%=      5-min Rain = 0
KHA3 161844Z 20012KT 17/03 A3006 RMK A01 T01660033  RH  041%=      5-min Rain = 0
KHA3 161845Z 20013KT 17/03 A3005 RMK A01 T01660033  RH  041%=      5-min Rain = 0
KHA3 161846Z 20014KT 17/03 A3005 RMK A01 T01650033  RH  041%=      5-min Rain = 0
KHA3 161847Z 20012KT 17/03 A3005 RMK A01 T01650032  RH  041%=      5-min Rain = 0
KHA3 161848Z 19010KT 16/03 A3005 RMK A01 T01640032  RH  041%=      5-min Rain = 0
KHA3 161849Z 19009KT 17/04 A3005 RMK A01 T01660035  RH  042%=      5-min Rain = 0
KHA3 161850Z 18014KT 17/04 A3005 RMK A01 T01690036  RH  041%=      5-min Rain = 0
KHA3 161851Z 18012KT 17/04 A3005 RMK A01 T01700035  RH  040%=      5-min Rain = 0
KHA3 161852Z 19012KT 17/04 A3005 RMK A01 T01710035  RH  040%=      5-min Rain = 0
KHA3 161853Z 19013KT 17/04 A3004 RMK A01 T01720035  RH  040%=      5-min Rain = 0
KHA3 161854Z 18012KT 17/04 A3004 RMK A01 T01710035  RH  040%=      5-min Rain = 0
KHA3 161855Z 18014KT 17/04 A3004 RMK A01 T01710035  RH  040%=      5-min Rain = 0
KHA3 161856Z 19013KT 17/04 A3004 RMK A01 T01710035  RH  040%=      5-min Rain = 0
KHA3 161857Z 17012G17KT 17/04 A3004 RMK A01 T01710035  RH  040%=      5-min Rain = 0
KHA3 161858Z 17015KT 17/04 A3004 RMK A01 T01720036  RH  040%=      5-min Rain = 0
KHA3 161859Z 18014KT 17/04 A3004 RMK A01 T01720035  RH  040%=      5-min Rain = 0
KHA3 161900Z 18013KT 17/04 A3004 RMK A01 T01710035  RH  040%=      5-min Rain = 0
KHA3 161901Z 19011KT 17/04 A3004 RMK A01 T01710036  RH  041%=      5-min Rain = 0
KHA3 161902Z 18011KT 17/04 A3004 RMK A01 T01720036  RH  040%=      5-min Rain = 0
KHA3 161903Z 18011KT 17/04 A3004 RMK A01 T01720036  RH  040%=      5-min Rain = 0
KHA3 161904Z 18012KT 17/04 A3004 RMK A01 T01720036  RH  040%=      5-min Rain = 0
KHA3 161905Z 18013KT 17/04 A3004 RMK A01 T01730037  RH  040%=      5-min Rain = 0
KHA3 161906Z 18014KT 18/04 A3004 RMK A01 T01750036  RH  040%=      5-min Rain = 0
KHA3 161907Z 19013KT 18/04 A3004 RMK A01 T01750037  RH  040%=      5-min Rain = 0
KHA3 161908Z 19014KT 18/04 A3004 RMK A01 T01750036  RH  040%=      5-min Rain = 0
KHA3 161909Z 19014KT 18/04 A3003 RMK A01 T01750036  RH  039%=      5-min Rain = 0
KHA3 161910Z 19013KT 18/04 A3003 RMK A01 T01750036  RH  039%=      5-min Rain = 0
KHA3 161911Z 18014KT 18/04 A3003 RMK A01 T01750036  RH  040%=      5-min Rain = 0
KHA3 161912Z 18009KT 18/04 A3003 RMK A01 T01770038  RH  040%=      5-min Rain = 0
KHA3 161913Z 18009KT 18/04 A3003 RMK A01 T01800040  RH  039%=      5-min Rain = 0
KHA3 161914Z 16013KT 18/04 A3003 RMK A01 T01800037  RH  039%=      5-min Rain = 0
KHA3 161915Z 16012KT 18/04 A3003 RMK A01 T01780037  RH  039%=      5-min Rain = 0
KHA3 161916Z 16012KT 18/04 A3003 RMK A01 T01770037  RH  039%=      5-min Rain = 0
KHA3 161917Z 15012KT 18/04 A3003 RMK A01 T01770037  RH  039%=      5-min Rain = 0
KHA3 161918Z 15011KT 18/04 A3003 RMK A01 T01770037  RH  039%=      5-min Rain = 0
KHA3 161919Z 17013KT 18/04 A3003 RMK A01 T01770037  RH  039%=      5-min Rain = 0
KHA3 161920Z 16013KT 18/04 A3003 RMK A01 T01770037  RH  039%=      5-min Rain = 0
KHA3 161921Z 15010KT 18/04 A3003 RMK A01 T01780037  RH  039%=      5-min Rain = 0
KHA3 161922Z 16010KT 18/04 A3003 RMK A01 T01780037  RH  039%=      5-min Rain = 0
KHA3 161923Z 17011KT 18/04 A3003 RMK A01 T01780037  RH  039%=      5-min Rain = 0
KHA3 161924Z 16008KT 18/04 A3003 RMK A01 T01800040  RH  039%=      5-min Rain = 0
KHA3 161925Z 16010KT 18/04 A3002 RMK A01 T01830039  RH  038%=      5-min Rain = 0
KHA3 161926Z 17010KT 18/04 A3002 RMK A01 T01830037  RH  038%=      5-min Rain = 0
KHA3 161927Z 16010KT 18/04 A3002 RMK A01 T01810036  RH  038%=      5-min Rain = 0
KHA3 161928Z 17009KT 18/04 A3002 RMK A01 T01790036  RH  039%=      5-min Rain = 0
KHA3 161929Z 16011KT 18/04 A3002 RMK A01 T01790037  RH  039%=      5-min Rain = 0
KHA3 161930Z 17011KT 18/04 A3002 RMK A01 T01810038  RH  039%=      5-min Rain = 0
KHA3 161931Z 18010KT 18/04 A3002 RMK A01 T01830038  RH  038%=      5-min Rain = 0
KHA3 161932Z 18007KT 18/04 A3002 RMK A01 T01830038  RH  038%=      5-min Rain = 0
KHA3 161933Z 19007KT 18/04 A3002 RMK A01 T01840039  RH  038%=      5-min Rain = 0
KHA3 161934Z 18008KT 19/04 A3002 RMK A01 T01860040  RH  038%=      5-min Rain = 0
KHA3 161935Z 16012KT 19/04 A3001 RMK A01 T01870040  RH  038%=      5-min Rain = 0
KHA3 161936Z 14012KT 19/04 A3001 RMK A01 T01870039  RH  037%=      5-min Rain = 0
KHA3 161937Z 14011KT 19/04 A3001 RMK A01 T01850038  RH  038%=      5-min Rain = 0
KHA3 161938Z 13011KT 18/04 A3001 RMK A01 T01830038  RH  038%=      5-min Rain = 0
KHA3 161939Z 14011KT 18/04 A3001 RMK A01 T01830039  RH  038%=      5-min Rain = 0
KHA3 161940Z 16008KT 18/04 A3001 RMK A01 T01830040  RH  039%=      5-min Rain = 0
KHA3 161941Z 15011KT 19/04 A3001 RMK A01 T01860043  RH  039%=      5-min Rain = 0
KHA3 161942Z 15012KT 19/04 A3001 RMK A01 T01890042  RH  038%=      5-min Rain = 0
KHA3 161943Z 16013KT 19/04 A3001 RMK A01 T01900041  RH  037%=      5-min Rain = 0
KHA3 161944Z 16010KT 19/04 A3001 RMK A01 T01900042  RH  038%=      5-min Rain = 0
KHA3 161945Z 16012KT 19/04 A3001 RMK A01 T01910043  RH  038%=      5-min Rain = 0
KHA3 161946Z 15011KT 19/04 A3001 RMK A01 T01910041  RH  037%=      5-min Rain = 0
KHA3 161947Z 16011KT 19/04 A3001 RMK A01 T01900041  RH  037%=      5-min Rain = 0
KHA3 161948Z 16010KT 19/04 A3001 RMK A01 T01910043  RH  038%=      5-min Rain = 0
KHA3 161949Z 16011KT 19/04 A3001 RMK A01 T01940044  RH  037%=      5-min Rain = 0
KHA3 161950Z 15009KT 19/04 A30 RMK A01 T01940042  RH  036%=      5-min Rain = 0
KHA3 161951Z 15011KT 19/04 A30 RMK A01 T01930043  RH  037%=      5-min Rain = 0
KHA3 161952Z 14012KT 19/04 A30 RMK A01 T01930042  RH  037%=      5-min Rain = 0
KHA3 161953Z 15012KT 19/04 A30 RMK A01 T01930043  RH  037%=      5-min Rain = 0
KHA3 161954Z 15011KT 19/04 A30 RMK A01 T01930041  RH  037%=      5-min Rain = 0
KHA3 161955Z 16011KT 19/04 A30 RMK A01 T01930043  RH  037%=      5-min Rain = 0
KHA3 161956Z 17011KT 19/04 A30 RMK A01 T01940042  RH  037%=      5-min Rain = 0
KHA3 161957Z 17009KT 19/04 A30 RMK A01 T01940042  RH  037%=      5-min Rain = 0
KHA3 161958Z 14008KT 20/04 A30 RMK A01 T01950044  RH  037%=      5-min Rain = 0
KHA3 161959Z 15012KT 20/04 A30 RMK A01 T01970044  RH  036%=      5-min Rain = 0
KHA3 162000Z 18013KT 20/04 A30 RMK A01 T02000043  RH  036%=      5-min Rain = 0
KHA3 162001Z 18015KT 20/04 A30 RMK A01 T02000039  RH  034%=      5-min Rain = 0
KHA3 162002Z 17015KT 20/04 A30 RMK A01 T02000038  RH  034%=      5-min Rain = 0
KHA3 162003Z 17017KT 20/04 A30 RMK A01 T02000038  RH  034%=      5-min Rain = 0
KHA3 162004Z 18015KT 20/04 A30 RMK A01 T01990037  RH  034%=      5-min Rain = 0
KHA3 162005Z 18013KT 20/04 A30 RMK A01 T01960036  RH  035%=      5-min Rain = 0
KHA3 162006Z 18012KT 19/04 A30 RMK A01 T01940036  RH  035%=      5-min Rain = 0
KHA3 162007Z 18012G17KT 19/04 A2999 RMK A01 T01930038  RH  036%=      5-min Rain = 0
KHA3 162008Z 19013KT 19/04 A2999 RMK A01 T01930038  RH  036%=      5-min Rain = 0
KHA3 162009Z 18011KT 19/04 A2999 RMK A01 T01930039  RH  036%=      5-min Rain = 0
KHA3 162010Z 15010KT 19/04 A2999 RMK A01 T01940041  RH  036%=      5-min Rain = 0
KHA3 162011Z 16011KT 20/04 A2999 RMK A01 T01960041  RH  036%=      5-min Rain = 0
KHA3 162012Z 15011KT 20/04 A2999 RMK A01 T01950040  RH  036%=      5-min Rain = 0
KHA3 162013Z 15011KT 20/04 A2999 RMK A01 T01950041  RH  036%=      5-min Rain = 0
KHA3 162014Z 17011KT 20/04 A2999 RMK A01 T01960042  RH  036%=      5-min Rain = 0
KHA3 162015Z 17013KT 20/04 A2999 RMK A01 T01970041  RH  036%=      5-min Rain = 0
KHA3 162016Z 16012KT 19/04 A2999 RMK A01 T01940039  RH  036%=      5-min Rain = 0
KHA3 162017Z 17013KT 19/04 A2999 RMK A01 T01920040  RH  037%=      5-min Rain = 0
KHA3 162018Z 17013KT 19/04 A2999 RMK A01 T01920041  RH  037%=      5-min Rain = 0
KHA3 162019Z 17012KT 19/04 A2999 RMK A01 T01920039  RH  036%=      5-min Rain = 0
KHA3 162020Z 18012KT 19/04 A2999 RMK A01 T01920040  RH  037%=      5-min Rain = 0
KHA3 162021Z 18012KT 19/04 A2999 RMK A01 T01900039  RH  037%=      5-min Rain = 0
KHA3 162022Z 19013KT 19/04 A2999 RMK A01 T01880039  RH  037%=      5-min Rain = 0
KHA3 162023Z 17013KT 19/04 A2999 RMK A01 T01870040  RH  038%=      5-min Rain = 0
KHA3 162024Z 16012KT 19/04 A2999 RMK A01 T01870041  RH  038%=      5-min Rain = 0
KHA3 162025Z 17015KT 19/04 A2999 RMK A01 T01870041  RH  038%=      5-min Rain = 0
KHA3 162026Z 17016KT 19/04 A2999 RMK A01 T01860041  RH  038%=      5-min Rain = 0
KHA3 162027Z 17012KT 19/04 A2999 RMK A01 T01850040  RH  038%=      5-min Rain = 0
KHA3 162028Z 16009KT 18/04 A2999 RMK A01 T01840041  RH  039%=      5-min Rain = 0
KHA3 162029Z 16011KT 19/04 A2999 RMK A01 T01850042  RH  039%=      5-min Rain = 0
KHA3 162030Z 15011KT 19/04 A2999 RMK A01 T01850042  RH  039%=      5-min Rain = 0
KHA3 162031Z 17010KT 19/04 A2999 RMK A01 T01850043  RH  039%=      5-min Rain = 0
KHA3 162032Z 17012KT 19/04 A2999 RMK A01 T01850042  RH  039%=      5-min Rain = 0
KHA3 162033Z 16011KT 19/04 A2999 RMK A01 T01850043  RH  039%=      5-min Rain = 0
KHA3 162034Z 16010KT 19/04 A2999 RMK A01 T01850043  RH  039%=      5-min Rain = 0
KHA3 162035Z 16011KT 19/05 A2999 RMK A01 T01870045  RH  039%=      5-min Rain = 0
KHA3 162036Z 18011KT 19/05 A2998 RMK A01 T01880045  RH  039%=      5-min Rain = 0
KHA3 162037Z 16011KT 19/05 A2998 RMK A01 T01890045  RH  039%=      5-min Rain = 0
KHA3 162038Z 16013KT 19/05 A2998 RMK A01 T01900046  RH  039%=      5-min Rain = 0
KHA3 162039Z 17013KT 19/05 A2998 RMK A01 T01910046  RH  038%=      5-min Rain = 0
KHA3 162040Z 16011KT 19/05 A2998 RMK A01 T01900046  RH  039%=      5-min Rain = 0
KHA3 162041Z 16012KT 19/05 A2998 RMK A01 T01910047  RH  039%=      5-min Rain = 0
KHA3 162042Z 16013KT 19/05 A2998 RMK A01 T01930048  RH  038%=      5-min Rain = 0
KHA3 162043Z 16012KT 19/05 A2998 RMK A01 T01930046  RH  038%=      5-min Rain = 0
KHA3 162044Z 15012KT 19/05 A2998 RMK A01 T01930046  RH  038%=      5-min Rain = 0
KHA3 162045Z 15012KT 19/05 A2998 RMK A01 T01920046  RH  038%=      5-min Rain = 0
KHA3 162046Z 15014KT 19/05 A2998 RMK A01 T01920046  RH  038%=      5-min Rain = 0
KHA3 162047Z 14013KT 19/05 A2998 RMK A01 T01920046  RH  038%=      5-min Rain = 0
KHA3 162048Z 13010KT 19/05 A2998 RMK A01 T01920046  RH  038%=      5-min Rain = 0
KHA3 162049Z 14011KT 19/05 A2998 RMK A01 T01910047  RH  038%=      5-min Rain = 0
KHA3 162050Z 14011KT 19/05 A2998 RMK A01 T01920047  RH  038%=      5-min Rain = 0
KHA3 162051Z 15012KT 19/05 A2998 RMK A01 T01930048  RH  038%=      5-min Rain = 0
KHA3 162052Z 15011KT 19/05 A2998 RMK A01 T01940047  RH  038%=      5-min Rain = 0
KHA3 162053Z 14014KT 19/05 A2998 RMK A01 T01940047  RH  038%=      5-min Rain = 0
KHA3 162054Z 15013KT 19/05 A2998 RMK A01 T01940047  RH  038%=      5-min Rain = 0
KHA3 162055Z 15012KT 19/05 A2998 RMK A01 T01940047  RH  038%=      5-min Rain = 0
KHA3 162056Z 15010KT 19/05 A2998 RMK A01 T01940048  RH  038%=      5-min Rain = 0
KHA3 162057Z 15017G22KT 20/05 A2998 RMK A01 T01950048  RH  038%=      5-min Rain = 0
KHA3 162058Z 18015KT 20/05 A2998 RMK A01 T01960049  RH  038%=      5-min Rain = 0
KHA3 162059Z 19014KT 20/05 A2998 RMK A01 T01970048  RH  037%=      5-min Rain = 0
KHA3 162100Z 17013KT 20/05 A2998 RMK A01 T01970049  RH  038%=      5-min Rain = 0
KHA3 162101Z 16014KT 20/05 A2998 RMK A01 T01970047  RH  037%=      5-min Rain = 0
KHA3 162102Z 18016KT 20/05 A2998 RMK A01 T01970047  RH  037%=      5-min Rain = 0
KHA3 162103Z 18016KT 20/05 A2998 RMK A01 T01960046  RH  037%=      5-min Rain = 0
KHA3 162104Z 18013KT 20/05 A2998 RMK A01 T01950046  RH  038%=      5-min Rain = 0
KHA3 162105Z 18014KT 20/05 A2998 RMK A01 T01950047  RH  038%=      5-min Rain = 0
KHA3 162106Z 17013KT 20/05 A2998 RMK A01 T01950047  RH  038%=      5-min Rain = 0
KHA3 162107Z 17012KT 20/05 A2998 RMK A01 T01950048  RH  038%=      5-min Rain = 0
KHA3 162108Z 16010KT 20/05 A2998 RMK A01 T01960048  RH  038%=      5-min Rain = 0
KHA3 162109Z 17015KT 20/05 A2998 RMK A01 T01970049  RH  038%=      5-min Rain = 0
KHA3 162110Z 17015KT 20/05 A2998 RMK A01 T01970047  RH  037%=      5-min Rain = 0
KHA3 162111Z 17017KT 20/05 A2998 RMK A01 T01960047  RH  038%=      5-min Rain = 0
KHA3 162112Z 18016KT 19/05 A2998 RMK A01 T01940046  RH  038%=      5-min Rain = 0
KHA3 162113Z 18014KT 19/05 A2998 RMK A01 T01930047  RH  038%=      5-min Rain = 0
KHA3 162114Z 18013KT 19/05 A2998 RMK A01 T01930048  RH  039%=      5-min Rain = 0
KHA3 162115Z 18012KT 19/05 A2998 RMK A01 T01930048  RH  038%=      5-min Rain = 0
KHA3 162116Z 17014KT 19/05 A2998 RMK A01 T01930049  RH  039%=      5-min Rain = 0
KHA3 162117Z 17015KT 19/05 A2998 RMK A01 T01940049  RH  039%=      5-min Rain = 0
KHA3 162118Z 16013KT 19/05 A2998 RMK A01 T01930048  RH  039%=      5-min Rain = 0
KHA3 162119Z 16014KT 19/05 A2998 RMK A01 T01920048  RH  039%=      5-min Rain = 0
KHA3 162120Z 16012G18KT 19/05 A2998 RMK A01 T01930049  RH  039%=      5-min Rain = 0
KHA3 162121Z 17013KT 19/05 A2998 RMK A01 T01920049  RH  039%=      5-min Rain = 0
KHA3 162122Z 18015KT 19/05 A2998 RMK A01 T01930049  RH  039%=      5-min Rain = 0
KHA3 162123Z 17015KT 19/05 A2998 RMK A01 T01920048  RH  039%=      5-min Rain = 0
KHA3 162124Z 17012KT 19/05 A2998 RMK A01 T01920048  RH  039%=      5-min Rain = 0
KHA3 162125Z 17013KT 19/05 A2997 RMK A01 T01910049  RH  039%=      5-min Rain = 0
KHA3 162126Z 17015KT 19/05 A2998 RMK A01 T01920049  RH  039%=      5-min Rain = 0
KHA3 162127Z 17013KT 19/05 A2998 RMK A01 T01920047  RH  039%=      5-min Rain = 0
KHA3 162128Z 17015KT 19/05 A2998 RMK A01 T01920048  RH  039%=      5-min Rain = 0
KHA3 162129Z 17016KT 19/05 A2998 RMK A01 T01910047  RH  039%=      5-min Rain = 0
KHA3 162130Z 18015KT 19/05 A2998 RMK A01 T01910046  RH  039%=      5-min Rain = 0
KHA3 162131Z 18015KT 19/05 A2998 RMK A01 T01900046  RH  039%=      5-min Rain = 0
KHA3 162132Z 18017KT 19/05 A2998 RMK A01 T01900046  RH  039%=      5-min Rain = 0
KHA3 162133Z 18018KT 19/05 A2998 RMK A01 T01890045  RH  039%=      5-min Rain = 0
KHA3 162134Z 19015KT 19/05 A2998 RMK A01 T01880045  RH  039%=      5-min Rain = 0
KHA3 162135Z 17012KT 19/05 A2998 RMK A01 T01880046  RH  039%=      5-min Rain = 0
KHA3 162136Z 18014KT 19/05 A2998 RMK A01 T01900047  RH  039%=      5-min Rain = 0
KHA3 162137Z 18015KT 19/05 A2998 RMK A01 T01900046  RH  039%=      5-min Rain = 0
KHA3 162138Z 18014KT 19/05 A2998 RMK A01 T01880046  RH  039%=      5-min Rain = 0
KHA3 162139Z 17013KT 19/05 A2997 RMK A01 T01880047  RH  039%=      5-min Rain = 0
KHA3 162140Z 17014KT 19/05 A2998 RMK A01 T01880046  RH  039%=      5-min Rain = 0
KHA3 162141Z 16013KT 19/05 A2997 RMK A01 T01880046  RH  039%=      5-min Rain = 0
KHA3 162142Z 17013KT 19/05 A2997 RMK A01 T01880045  RH  039%=      5-min Rain = 0
KHA3 162143Z 18016KT 19/05 A2997 RMK A01 T01890046  RH  039%=      5-min Rain = 0
KHA3 162144Z 18015G20KT 19/05 A2997 RMK A01 T01890046  RH  039%=      5-min Rain = 0
KHA3 162145Z 18015KT 19/05 A2997 RMK A01 T01880046  RH  039%=      5-min Rain = 0
KHA3 162146Z 19014KT 19/05 A2997 RMK A01 T01870045  RH  039%=      5-min Rain = 0
KHA3 162147Z 19013KT 19/05 A2997 RMK A01 T01870046  RH  039%=      5-min Rain = 0
KHA3 162148Z 18015KT 19/05 A2997 RMK A01 T01870046  RH  039%=      5-min Rain = 0
KHA3 162149Z 18012KT 19/05 A2997 RMK A01 T01880047  RH  040%=      5-min Rain = 0
KHA3 162150Z 18013KT 19/05 A2997 RMK A01 T01880048  RH  040%=      5-min Rain = 0
KHA3 162151Z 18011KT 19/05 A2998 RMK A01 T01890049  RH  040%=      5-min Rain = 0
KHA3 162152Z 18016KT 19/05 A2997 RMK A01 T01900049  RH  039%=      5-min Rain = 0
KHA3 162153Z 18015KT 19/05 A2997 RMK A01 T01890048  RH  039%=      5-min Rain = 0
KHA3 162154Z 18016KT 19/05 A2997 RMK A01 T01880046  RH  039%=      5-min Rain = 0
KHA3 162155Z 18017KT 19/05 A2997 RMK A01 T01870045  RH  039%=      5-min Rain = 0
KHA3 162156Z 18016KT 19/04 A2997 RMK A01 T01860044  RH  039%=      5-min Rain = 0
KHA3 162157Z 18017KT 19/04 A2997 RMK A01 T01860044  RH  039%=      5-min Rain = 0
KHA3 162158Z 18016KT 19/04 A2997 RMK A01 T01860044  RH  039%=      5-min Rain = 0
KHA3 162159Z 18016KT 19/05 A2997 RMK A01 T01860045  RH  039%=      5-min Rain = 0
KHA3 162200Z 18013KT 19/04 A2997 RMK A01 T01860044  RH  039%=      5-min Rain = 0
KHA3 162201Z 17013KT 19/05 A2997 RMK A01 T01870045  RH  039%=      5-min Rain = 0
KHA3 162202Z 17016KT 19/05 A2997 RMK A01 T01880045  RH  039%=      5-min Rain = 0
KHA3 162203Z 17017KT 19/05 A2997 RMK A01 T01890045  RH  039%=      5-min Rain = 0
KHA3 162204Z 17018KT 19/05 A2997 RMK A01 T01890045  RH  039%=      5-min Rain = 0
KHA3 162205Z 17016KT 19/05 A2997 RMK A01 T01890045  RH  039%=      5-min Rain = 0
KHA3 162206Z 17015KT 19/05 A2997 RMK A01 T01890045  RH  039%=      5-min Rain = 0
KHA3 162207Z 17015KT 19/05 A2997 RMK A01 T01890046  RH  039%=      5-min Rain = 0
KHA3 162208Z 17016KT 19/05 A2997 RMK A01 T01890046  RH  039%=      5-min Rain = 0
KHA3 162209Z 17014KT 19/05 A2997 RMK A01 T01880046  RH  039%=      5-min Rain = 0
KHA3 162210Z 18014KT 19/05 A2997 RMK A01 T01880047  RH  039%=      5-min Rain = 0
KHA3 162211Z 18013KT 19/05 A2997 RMK A01 T01880047  RH  039%=      5-min Rain = 0
KHA3 162212Z 17013KT 19/05 A2997 RMK A01 T01880047  RH  039%=      5-min Rain = 0
KHA3 162213Z 16016KT 19/05 A2997 RMK A01 T01880047  RH  039%=      5-min Rain = 0
KHA3 162214Z 16013KT 19/05 A2997 RMK A01 T01890048  RH  039%=      5-min Rain = 0
KHA3 162215Z 17015KT 19/05 A2996 RMK A01 T01900048  RH  039%=      5-min Rain = 0
KHA3 162216Z 17015KT 19/05 A2996 RMK A01 T01900048  RH  039%=      5-min Rain = 0
KHA3 162217Z 17017KT 19/05 A2996 RMK A01 T01890048  RH  039%=      5-min Rain = 0
KHA3 162218Z 17015KT 19/05 A2996 RMK A01 T01880047  RH  039%=      5-min Rain = 0
KHA3 162219Z 17012KT 19/05 A2997 RMK A01 T01880048  RH  040%=      5-min Rain = 0
KHA3 162220Z 17011KT 19/05 A2997 RMK A01 T01870049  RH  040%=      5-min Rain = 0
KHA3 162221Z 18014KT 19/05 A2997 RMK A01 T01870049  RH  040%=      5-min Rain = 0
KHA3 162222Z 17016KT 19/05 A2997 RMK A01 T01860048  RH  040%=      5-min Rain = 0
KHA3 162223Z 17014KT 19/05 A2997 RMK A01 T01860048  RH  040%=      5-min Rain = 0
KHA3 162224Z 18012KT 19/05 A2997 RMK A01 T01860049  RH  041%=      5-min Rain = 0
KHA3 162225Z 18013KT 19/05 A2996 RMK A01 T01850049  RH  041%=      5-min Rain = 0
KHA3 162226Z 18013KT 19/05 A2996 RMK A01 T01850049  RH  041%=      5-min Rain = 0
KHA3 162227Z 17015KT 19/05 A2996 RMK A01 T01850049  RH  041%=      5-min Rain = 0
KHA3 162228Z 18016KT 19/05 A2996 RMK A01 T01860049  RH  041%=      5-min Rain = 0
KHA3 162229Z 17013KT 19/05 A2996 RMK A01 T01860050  RH  041%=      5-min Rain = 0
KHA3 162230Z 17015KT 19/05 A2996 RMK A01 T01860050  RH  041%=      5-min Rain = 0
KHA3 162231Z 17016KT 19/05 A2996 RMK A01 T01880051  RH  041%=      5-min Rain = 0
KHA3 162232Z 17013KT 19/05 A2996 RMK A01 T01880051  RH  041%=      5-min Rain = 0
KHA3 162233Z 17011KT 19/05 A2996 RMK A01 T01870051  RH  041%=      5-min Rain = 0
KHA3 162234Z 17012KT 19/05 A2996 RMK A01 T01860051  RH  041%=      5-min Rain = 0
KHA3 162235Z 17011KT 19/05 A2996 RMK A01 T01850051  RH  041%=      5-min Rain = 0
KHA3 162236Z 16009KT 18/05 A2996 RMK A01 T01840051  RH  042%=      5-min Rain = 0
KHA3 162237Z 16011KT 18/05 A2996 RMK A01 T01830051  RH  042%=      5-min Rain = 0
KHA3 162238Z 16010KT 18/05 A2996 RMK A01 T01820051  RH  042%=      5-min Rain = 0
KHA3 162239Z 16013KT 18/05 A2996 RMK A01 T01810050  RH  042%=      5-min Rain = 0
KHA3 162240Z 16014KT 18/05 A2996 RMK A01 T01800050  RH  042%=      5-min Rain = 0
KHA3 162241Z 16013KT 18/05 A2996 RMK A01 T01800050  RH  042%=      5-min Rain = 0
KHA3 162242Z 16011KT 18/05 A2996 RMK A01 T01790050  RH  043%=      5-min Rain = 0
KHA3 162243Z 15013KT 18/05 A2996 RMK A01 T01780050  RH  043%=      5-min Rain = 0
KHA3 162244Z 15012KT 18/05 A2996 RMK A01 T01770049  RH  043%=      5-min Rain = 0
KHA3 162245Z 16011KT 18/05 A2996 RMK A01 T01770050  RH  043%=      5-min Rain = 0
KHA3 162246Z 16011KT 18/05 A2996 RMK A01 T01770050  RH  043%=      5-min Rain = 0
KHA3 162247Z 16010KT 18/05 A2996 RMK A01 T01760050  RH  043%=      5-min Rain = 0
KHA3 162248Z 16011KT 18/05 A2996 RMK A01 T01760050  RH  043%=      5-min Rain = 0
KHA3 162249Z 16012KT 18/05 A2996 RMK A01 T01750050  RH  044%=      5-min Rain = 0
KHA3 162250Z 16010KT 18/05 A2996 RMK A01 T01750050  RH  044%=      5-min Rain = 0
KHA3 162251Z 16010KT 18/05 A2997 RMK A01 T01750050  RH  044%=      5-min Rain = 0
KHA3 162252Z 16009KT 18/05 A2997 RMK A01 T01750050  RH  044%=      5-min Rain = 0
KHA3 162253Z 16009KT 17/05 A2997 RMK A01 T01740051  RH  044%=      5-min Rain = 0
KHA3 162254Z 16009KT 17/05 A2997 RMK A01 T01740051  RH  044%=      5-min Rain = 0
KHA3 162255Z 16009KT 17/05 A2996 RMK A01 T01740051  RH  044%=      5-min Rain = 0
KHA3 162256Z 16011KT 17/05 A2996 RMK A01 T01740051  RH  044%=      5-min Rain = 0
KHA3 162257Z 16010KT 18/05 A2996 RMK A01 T01750051  RH  044%=      5-min Rain = 0
KHA3 162258Z 16010KT 18/05 A2997 RMK A01 T01760051  RH  044%=      5-min Rain = 0
KHA3 162259Z 16011KT 18/05 A2997 RMK A01 T01760051  RH  044%=      5-min Rain = 0
KHA3 162300Z 16011KT 18/05 A2997 RMK A01 T01760051  RH  044%=      5-min Rain = 0
KHA3 162301Z 16010KT 18/05 A2997 RMK A01 T01770051  RH  044%=      5-min Rain = 0
KHA3 162302Z 15009KT 18/05 A2997 RMK A01 T01770052  RH  044%=      5-min Rain = 0
KHA3 162303Z 16009KT 18/05 A2997 RMK A01 T01760052  RH  044%=      5-min Rain = 0
KHA3 162304Z 16011KT 18/05 A2997 RMK A01 T01760051  RH  044%=      5-min Rain = 0
KHA3 162305Z 16010KT 18/05 A2997 RMK A01 T01750051  RH  044%=      5-min Rain = 0
KHA3 162306Z 16008KT 18/05 A2997 RMK A01 T01750051  RH  044%=      5-min Rain = 0
KHA3 162307Z 16009KT 17/05 A2997 RMK A01 T01740051  RH  044%=      5-min Rain = 0
KHA3 162308Z 16009KT 17/05 A2997 RMK A01 T01730051  RH  045%=      5-min Rain = 0
KHA3 162309Z 16011KT 17/05 A2997 RMK A01 T01720051  RH  045%=      5-min Rain = 0
KHA3 162310Z 16010KT 17/05 A2997 RMK A01 T01720051  RH  045%=      5-min Rain = 0
KHA3 162311Z 16010KT 17/05 A2997 RMK A01 T01710051  RH  045%=      5-min Rain = 0
KHA3 162312Z 16010KT 17/05 A2997 RMK A01 T01710051  RH  045%=      5-min Rain = 0
KHA3 162313Z 16009KT 17/05 A2997 RMK A01 T01700051  RH  045%=      5-min Rain = 0
KHA3 162314Z 16010KT 17/05 A2997 RMK A01 T01690051  RH  046%=      5-min Rain = 0
KHA3 162315Z 16011KT 17/05 A2997 RMK A01 T01690051  RH  046%=      5-min Rain = 0
KHA3 162316Z 17011KT 17/05 A2997 RMK A01 T01680051  RH  046%=      5-min Rain = 0
KHA3 162317Z 17011KT 17/05 A2997 RMK A01 T01680051  RH  046%=      5-min Rain = 0
KHA3 162318Z 17011KT 17/05 A2997 RMK A01 T01680051  RH  046%=      5-min Rain = 0
KHA3 162319Z 17010KT 17/05 A2997 RMK A01 T01680051  RH  046%=      5-min Rain = 0
KHA3 162320Z 17011KT 17/05 A2997 RMK A01 T01680051  RH  046%=      5-min Rain = 0
KHA3 162321Z 17011KT 17/05 A2997 RMK A01 T01670051  RH  046%=      5-min Rain = 0
KHA3 162322Z 17010KT 17/05 A2998 RMK A01 T01670051  RH  046%=      5-min Rain = 0
KHA3 162323Z 17009KT 17/05 A2998 RMK A01 T01670051  RH  046%=      5-min Rain = 0
KHA3 162324Z 17008KT 17/05 A2998 RMK A01 T01650051  RH  047%=      5-min Rain = 0
KHA3 162325Z 16009KT 16/05 A2998 RMK A01 T01640051  RH  047%=      5-min Rain = 0
KHA3 162326Z 16008KT 16/05 A2998 RMK A01 T01630051  RH  047%=      5-min Rain = 0
KHA3 162327Z 16008KT 16/05 A2998 RMK A01 T01630051  RH  047%=      5-min Rain = 0
KHA3 162328Z 15009KT 16/05 A2998 RMK A01 T01620051  RH  048%=      5-min Rain = 0
KHA3 162329Z 16009KT 16/05 A2998 RMK A01 T01620051  RH  048%=      5-min Rain = 0
KHA3 162330Z 16009KT 16/05 A2998 RMK A01 T01610051  RH  048%=      5-min Rain = 0
KHA3 162331Z 16009KT 16/05 A2997 RMK A01 T01610051  RH  048%=      5-min Rain = 0
KHA3 162332Z 16008KT 16/05 A2997 RMK A01 T01600051  RH  048%=      5-min Rain = 0
KHA3 162333Z 16007KT 16/05 A2997 RMK A01 T01600051  RH  048%=      5-min Rain = 0
KHA3 162334Z 16007KT 16/05 A2997 RMK A01 T01590051  RH  049%=      5-min Rain = 0
KHA3 162335Z 15008KT 16/05 A2997 RMK A01 T01580051  RH  049%=      5-min Rain = 0
KHA3 162336Z 15008KT 16/05 A2997 RMK A01 T01580051  RH  049%=      5-min Rain = 0
KHA3 162337Z 15007KT 16/05 A2997 RMK A01 T01580051  RH  049%=      5-min Rain = 0
KHA3 162338Z 15007KT 16/05 A2997 RMK A01 T01580051  RH  049%=      5-min Rain = 0
KHA3 162339Z 16006KT 16/05 A2998 RMK A01 T01570051  RH  049%=      5-min Rain = 0
KHA3 162340Z 15007KT 16/05 A2998 RMK A01 T01570050  RH  049%=      5-min Rain = 0
KHA3 162341Z 15008KT 16/05 A2998 RMK A01 T01560050  RH  049%=      5-min Rain = 0
KHA3 162342Z 15007KT 16/05 A2998 RMK A01 T01560049  RH  049%=      5-min Rain = 0
KHA3 162343Z 15007KT 16/05 A2998 RMK A01 T01560050  RH  049%=      5-min Rain = 0
KHA3 162344Z 15007KT 16/05 A2998 RMK A01 T01560049  RH  049%=      5-min Rain = 0
KHA3 162345Z 14008KT 16/05 A2998 RMK A01 T01550049  RH  049%=      5-min Rain = 0
KHA3 162346Z 14007KT 16/05 A2997 RMK A01 T01550049  RH  049%=      5-min Rain = 0
KHA3 162347Z 14008KT 16/05 A2997 RMK A01 T01550048  RH  049%=      5-min Rain = 0
KHA3 162348Z 14007KT 16/05 A2997 RMK A01 T01550048  RH  049%=      5-min Rain = 0
KHA3 162349Z 14007KT 16/05 A2997 RMK A01 T01560048  RH  049%=      5-min Rain = 0
KHA3 162350Z 14008KT 16/05 A2997 RMK A01 T01560048  RH  049%=      5-min Rain = 0
KHA3 162351Z 14007KT 16/05 A2997 RMK A01 T01560049  RH  049%=      5-min Rain = 0
KHA3 162352Z 14008KT 16/05 A2997 RMK A01 T01550048  RH  049%=      5-min Rain = 0
KHA3 162353Z 14008KT 16/05 A2997 RMK A01 T01550048  RH  049%=      5-min Rain = 0
KHA3 162354Z 14008KT 16/05 A2997 RMK A01 T01550048  RH  049%=      5-min Rain = 0
KHA3 162355Z 14008KT 15/05 A2997 RMK A01 T01540047  RH  049%=      5-min Rain = 0
KHA3 162356Z 14008KT 15/05 A2997 RMK A01 T01540047  RH  049%=      5-min Rain = 0
KHA3 162357Z 14008KT 15/05 A2997 RMK A01 T01540047  RH  049%=      5-min Rain = 0
KHA3 162358Z 14007KT 15/05 A2998 RMK A01 T01540047  RH  049%=      5-min Rain = 0
KHA3 162359Z 14007KT 15/05 A2998 RMK A01 T01540047  RH  049%=      5-min Rain = 0
KHA3 170000Z 14007KT 15/05 A2998 RMK A01 T01530047  RH  049%=      5-min Rain = 0
KHA3 170001Z 14006KT 15/05 A2998 RMK A01 T01530047  RH  049%=      5-min Rain = 0
KHA3 170002Z 14006KT 15/05 A2998 RMK A01 T01520047  RH  049%=      5-min Rain = 0
KHA3 170003Z 14006KT 15/05 A2998 RMK A01 T01520047  RH  050%=      5-min Rain = 0
KHA3 170004Z 14007KT 15/05 A2998 RMK A01 T01520047  RH  050%=      5-min Rain = 0
KHA3 170005Z 14008KT 15/05 A2998 RMK A01 T01510047  RH  050%=      5-min Rain = 0
KHA3 170006Z 14007KT 15/05 A2998 RMK A01 T01510047  RH  050%=      5-min Rain = 0
KHA3 170007Z 14008KT 15/05 A2998 RMK A01 T01510047  RH  050%=      5-min Rain = 0
KHA3 170008Z 14008KT 15/05 A2998 RMK A01 T01510047  RH  050%=      5-min Rain = 0
KHA3 170009Z 14007KT 15/05 A2998 RMK A01 T01510047  RH  050%=      5-min Rain = 0
KHA3 170010Z 14008KT 15/05 A2998 RMK A01 T01510047  RH  050%=      5-min Rain = 0
KHA3 170011Z 14007KT 15/05 A2998 RMK A01 T01500047  RH  050%=      5-min Rain = 0
KHA3 170012Z 14007KT 15/05 A2997 RMK A01 T01490047  RH  050%=      5-min Rain = 0
KHA3 170013Z 14008KT 15/05 A2997 RMK A01 T01480046  RH  050%=      5-min Rain = 0
KHA3 170014Z 14007KT 15/05 A2997 RMK A01 T01480046  RH  051%=      5-min Rain = 0
KHA3 170015Z 14008KT 15/05 A2997 RMK A01 T01480047  RH  051%=      5-min Rain = 0
KHA3 170016Z 13006KT 15/05 A2997 RMK A01 T01470046  RH  051%=      5-min Rain = 0
KHA3 170017Z 14007KT 15/05 A2997 RMK A01 T01470046  RH  051%=      5-min Rain = 0
KHA3 170018Z 14007KT 15/05 A2998 RMK A01 T01470046  RH  051%=      5-min Rain = 0
KHA3 170019Z 14007KT 15/05 A2998 RMK A01 T01470046  RH  051%=      5-min Rain = 0
KHA3 170020Z 14007KT 15/05 A2998 RMK A01 T01460046  RH  051%=      5-min Rain = 0
KHA3 170021Z 14007KT 15/05 A2998 RMK A01 T01460046  RH  051%=      5-min Rain = 0
KHA3 170022Z 14007KT 15/05 A2998 RMK A01 T01460045  RH  051%=      5-min Rain = 0
KHA3 170023Z 14008KT 15/05 A2998 RMK A01 T01460045  RH  051%=      5-min Rain = 0
KHA3 170024Z 14008KT 15/05 A2998 RMK A01 T01450045  RH  051%=      5-min Rain = 0
KHA3 170025Z 14008KT 14/05 A2998 RMK A01 T01440045  RH  051%=      5-min Rain = 0
KHA3 170026Z 14008KT 14/05 A2998 RMK A01 T01440045  RH  051%=      5-min Rain = 0
KHA3 170027Z 14008KT 14/05 A2998 RMK A01 T01440045  RH  051%=      5-min Rain = 0
KHA3 170028Z 14007KT 14/04 A2998 RMK A01 T01440044  RH  051%=      5-min Rain = 0
KHA3 170029Z 14008KT 14/04 A2998 RMK A01 T01440044  RH  051%=      5-min Rain = 0
KHA3 170030Z 14008KT 14/04 A2998 RMK A01 T01430044  RH  051%=      5-min Rain = 0
KHA3 170031Z 14008KT 14/04 A2998 RMK A01 T01430043  RH  051%=      5-min Rain = 0
KHA3 170032Z 14008KT 14/04 A2998 RMK A01 T01430043  RH  051%=      5-min Rain = 0
KHA3 170033Z 14008KT 14/04 A2998 RMK A01 T01430043  RH  051%=      5-min Rain = 0
KHA3 170034Z 14007KT 14/04 A2998 RMK A01 T01430043  RH  051%=      5-min Rain = 0
KHA3 170035Z 14007KT 14/04 A2998 RMK A01 T01430043  RH  051%=      5-min Rain = 0
KHA3 170036Z 14007KT 14/04 A2998 RMK A01 T01420043  RH  051%=      5-min Rain = 0
KHA3 170037Z 14008KT 14/04 A2998 RMK A01 T01420043  RH  051%=      5-min Rain = 0
KHA3 170038Z 14007KT 14/04 A2998 RMK A01 T01420043  RH  051%=      5-min Rain = 0
KHA3 170039Z 14007KT 14/04 A2998 RMK A01 T01410043  RH  052%=      5-min Rain = 0
KHA3 170040Z 14007KT 14/04 A2998 RMK A01 T01400043  RH  052%=      5-min Rain = 0
KHA3 170041Z 13007KT 14/04 A2998 RMK A01 T01400043  RH  052%=      5-min Rain = 0
KHA3 170042Z 13007KT 14/04 A2998 RMK A01 T01390042  RH  052%=      5-min Rain = 0
KHA3 170043Z 13007KT 14/04 A2998 RMK A01 T01400042  RH  052%=      5-min Rain = 0
KHA3 170044Z 13007KT 14/04 A2998 RMK A01 T01390042  RH  052%=      5-min Rain = 0
KHA3 170045Z 13008KT 14/04 A2998 RMK A01 T01390042  RH  052%=      5-min Rain = 0
KHA3 170046Z 13008KT 14/04 A2998 RMK A01 T01390042  RH  052%=      5-min Rain = 0
KHA3 170047Z 13007KT 14/04 A2998 RMK A01 T01390042  RH  052%=      5-min Rain = 0
KHA3 170048Z 13008KT 14/04 A2998 RMK A01 T01390041  RH  052%=      5-min Rain = 0
KHA3 170049Z 13008KT 14/04 A2998 RMK A01 T01390041  RH  052%=      5-min Rain = 0
KHA3 170050Z 13007KT 14/04 A2998 RMK A01 T01390041  RH  052%=      5-min Rain = 0
KHA3 170051Z 13008KT 14/04 A2998 RMK A01 T01380041  RH  052%=      5-min Rain = 0
KHA3 170052Z 14007KT 14/04 A2998 RMK A01 T01390040  RH  051%=      5-min Rain = 0
KHA3 170053Z 14008KT 14/04 A2998 RMK A01 T01390040  RH  051%=      5-min Rain = 0
KHA3 170054Z 14008KT 14/04 A2998 RMK A01 T01390040  RH  051%=      5-min Rain = 0
KHA3 170055Z 14008KT 14/04 A2998 RMK A01 T01390040  RH  051%=      5-min Rain = 0
KHA3 170056Z 14008KT 14/04 A2998 RMK A01 T01390039  RH  051%=      5-min Rain = 0
KHA3 170057Z 14008KT 14/04 A2998 RMK A01 T01390039  RH  051%=      5-min Rain = 0
KHA3 170058Z 14008KT 14/04 A2998 RMK A01 T01390039  RH  051%=      5-min Rain = 0
KHA3 170059Z 14008KT 14/04 A2998 RMK A01 T01390039  RH  051%=      5-min Rain = 0
KHA3 170100Z 14008KT 14/04 A2998 RMK A01 T01390039  RH  051%=      5-min Rain = 0
KHA3 170101Z 14008KT 14/04 A2998 RMK A01 T01390039  RH  051%=      5-min Rain = 0
KHA3 170102Z 14008KT 14/04 A2998 RMK A01 T01390039  RH  051%=      5-min Rain = 0
KHA3 170103Z 14008KT 14/04 A2998 RMK A01 T01390039  RH  051%=      5-min Rain = 0
KHA3 170104Z 14008KT 14/04 A2998 RMK A01 T01390039  RH  051%=      5-min Rain = 0
KHA3 170105Z 14008KT 14/04 A2998 RMK A01 T01390039  RH  051%=      5-min Rain = 0
KHA3 170106Z 14008KT 14/04 A2998 RMK A01 T01390039  RH  051%=      5-min Rain = 0
KHA3 170107Z 13009KT 14/04 A2997 RMK A01 T01390039  RH  051%=      5-min Rain = 0
KHA3 170108Z 14009KT 14/04 A2997 RMK A01 T01390038  RH  051%=      5-min Rain = 0
KHA3 170109Z 13009KT 14/04 A2997 RMK A01 T01390038  RH  051%=      5-min Rain = 0
KHA3 170110Z 13009KT 14/04 A2997 RMK A01 T01390038  RH  050%=      5-min Rain = 0
KHA3 170111Z 13009KT 14/04 A2997 RMK A01 T01390038  RH  050%=      5-min Rain = 0
KHA3 170112Z 13009KT 14/04 A2997 RMK A01 T01390038  RH  051%=      5-min Rain = 0
KHA3 170113Z 14009KT 14/04 A2997 RMK A01 T01380038  RH  051%=      5-min Rain = 0
KHA3 170114Z 13009KT 14/04 A2997 RMK A01 T01380038  RH  051%=      5-min Rain = 0
KHA3 170115Z 13008KT 14/04 A2997 RMK A01 T01380038  RH  051%=      5-min Rain = 0
KHA3 170116Z 13009KT 14/04 A2997 RMK A01 T01380038  RH  051%=      5-min Rain = 0
KHA3 170117Z 13009KT 14/04 A2997 RMK A01 T01380038  RH  051%=      5-min Rain = 0
KHA3 170118Z 13008KT 14/04 A2997 RMK A01 T01380037  RH  051%=      5-min Rain = 0
KHA3 170119Z 13009KT 14/04 A2997 RMK A01 T01380038  RH  051%=      5-min Rain = 0
KHA3 170120Z 14008KT 14/04 A2997 RMK A01 T01380038  RH  051%=      5-min Rain = 0
KHA3 170121Z 14009KT 14/04 A2997 RMK A01 T01380037  RH  050%=      5-min Rain = 0
KHA3 170122Z 14009KT 14/04 A2997 RMK A01 T01390037  RH  050%=      5-min Rain = 0
KHA3 170123Z 14009KT 14/04 A2997 RMK A01 T01390037  RH  050%=      5-min Rain = 0
KHA3 170124Z 13009KT 14/04 A2997 RMK A01 T01390036  RH  050%=      5-min Rain = 0
KHA3 170125Z 13009KT 14/04 A2997 RMK A01 T01390036  RH  050%=      5-min Rain = 0
KHA3 170126Z 13008KT 14/04 A2997 RMK A01 T01390036  RH  050%=      5-min Rain = 0
KHA3 170127Z 14009KT 14/04 A2997 RMK A01 T01390036  RH  050%=      5-min Rain = 0
KHA3 170128Z 14010KT 14/04 A2997 RMK A01 T01390036  RH  050%=      5-min Rain = 0
KHA3 170129Z 13009KT 14/04 A2997 RMK A01 T01390035  RH  049%=      5-min Rain = 0
KHA3 170130Z 13009KT 14/04 A2997 RMK A01 T01400036  RH  049%=      5-min Rain = 0
KHA3 170131Z 13008KT 14/04 A2997 RMK A01 T01390035  RH  050%=      5-min Rain = 0
KHA3 170132Z 14009KT 14/04 A2997 RMK A01 T01380035  RH  050%=      5-min Rain = 0
KHA3 170133Z 14009KT 14/04 A2997 RMK A01 T01380035  RH  050%=      5-min Rain = 0
KHA3 170134Z 14010KT 14/04 A2997 RMK A01 T01390035  RH  049%=      5-min Rain = 0
KHA3 170135Z 14009KT 14/04 A2997 RMK A01 T01390035  RH  049%=      5-min Rain = 0
KHA3 170136Z 14009KT 14/03 A2997 RMK A01 T01390034  RH  049%=      5-min Rain = 0
KHA3 170137Z 14009KT 14/03 A2997 RMK A01 T01390034  RH  049%=      5-min Rain = 0
KHA3 170138Z 15009KT 14/03 A2997 RMK A01 T01380034  RH  049%=      5-min Rain = 0
KHA3 170139Z 15009KT 14/03 A2997 RMK A01 T01370034  RH  050%=      5-min Rain = 0
KHA3 170140Z 15009KT 14/03 A2997 RMK A01 T01360034  RH  050%=      5-min Rain = 0
KHA3 170141Z 15009KT 14/03 A2997 RMK A01 T01360034  RH  050%=      5-min Rain = 0
KHA3 170142Z 15009KT 14/03 A2997 RMK A01 T01360034  RH  050%=      5-min Rain = 0
KHA3 170143Z 15009KT 14/03 A2997 RMK A01 T01360034  RH  050%=      5-min Rain = 0
KHA3 170144Z 15009KT 14/03 A2997 RMK A01 T01360033  RH  050%=      5-min Rain = 0
KHA3 170145Z 15009KT 14/03 A2997 RMK A01 T01370034  RH  050%=      5-min Rain = 0
KHA3 170146Z 15010KT 14/03 A2997 RMK A01 T01370033  RH  049%=      5-min Rain = 0
KHA3 170147Z 15009KT 14/03 A2997 RMK A01 T01370033  RH  049%=      5-min Rain = 0
KHA3 170148Z 15010KT 14/03 A2996 RMK A01 T01380033  RH  049%=      5-min Rain = 0
KHA3 170149Z 15010KT 14/03 A2996 RMK A01 T01380033  RH  049%=      5-min Rain = 0
KHA3 170150Z 15010KT 14/03 A2996 RMK A01 T01390033  RH  049%=      5-min Rain = 0
KHA3 170151Z 15010KT 14/03 A2996 RMK A01 T01390033  RH  049%=      5-min Rain = 0
KHA3 170152Z 15011KT 14/03 A2996 RMK A01 T01390033  RH  049%=      5-min Rain = 0
KHA3 170153Z 15010KT 14/03 A2997 RMK A01 T01410033  RH  048%=      5-min Rain = 0
KHA3 170154Z 15012KT 14/03 A2997 RMK A01 T01420033  RH  048%=      5-min Rain = 0
KHA3 170155Z 15011KT 14/03 A2997 RMK A01 T01430033  RH  048%=      5-min Rain = 0
KHA3 170156Z 15011KT 14/03 A2997 RMK A01 T01440033  RH  047%=      5-min Rain = 0
KHA3 170157Z 15011KT 14/03 A2997 RMK A01 T01440032  RH  047%=      5-min Rain = 0
KHA3 170158Z 15010KT 14/03 A2997 RMK A01 T01440033  RH  047%=      5-min Rain = 0
KHA3 170159Z 15011KT 14/03 A2997 RMK A01 T01440033  RH  047%=      5-min Rain = 0
KHA3 170200Z 15010KT 14/03 A2997 RMK A01 T01440033  RH  047%=      5-min Rain = 0
KHA3 170201Z 15010KT 14/03 A2997 RMK A01 T01440033  RH  047%=      5-min Rain = 0
KHA3 170202Z 15010KT 14/03 A2997 RMK A01 T01430033  RH  047%=      5-min Rain = 0
KHA3 170203Z 15010KT 14/03 A2997 RMK A01 T01430033  RH  047%=      5-min Rain = 0
KHA3 170204Z 15011KT 14/03 A2997 RMK A01 T01430033  RH  047%=      5-min Rain = 0
KHA3 170205Z 15010KT 14/03 A2997 RMK A01 T01430033  RH  048%=      5-min Rain = 0
KHA3 170206Z 15010KT 14/03 A2996 RMK A01 T01420033  RH  048%=      5-min Rain = 0
KHA3 170207Z 15012KT 14/03 A2996 RMK A01 T01420033  RH  048%=      5-min Rain = 0
KHA3 170208Z 15011KT 14/03 A2996 RMK A01 T01410033  RH  048%=      5-min Rain = 0
KHA3 170209Z 15010KT 14/03 A2997 RMK A01 T01410032  RH  048%=      5-min Rain = 0
KHA3 170210Z 15010KT 14/03 A2997 RMK A01 T01410033  RH  048%=      5-min Rain = 0
KHA3 170211Z 15011KT 14/03 A2997 RMK A01 T01400033  RH  048%=      5-min Rain = 0
KHA3 170212Z 15011KT 14/03 A2997 RMK A01 T01400033  RH  048%=      5-min Rain = 0
KHA3 170213Z 15010KT 14/03 A2997 RMK A01 T01400033  RH  048%=      5-min Rain = 0
KHA3 170214Z 16010KT 14/03 A2997 RMK A01 T01400033  RH  048%=      5-min Rain = 0
KHA3 170215Z 16011KT 14/03 A2997 RMK A01 T01400033  RH  048%=      5-min Rain = 0
KHA3 170216Z 16012KT 14/03 A2997 RMK A01 T01400033  RH  048%=      5-min Rain = 0
KHA3 170217Z 16010KT 14/03 A2997 RMK A01 T01410033  RH  048%=      5-min Rain = 0
KHA3 170218Z 15011KT 14/03 A2997 RMK A01 T01410033  RH  048%=      5-min Rain = 0
KHA3 170219Z 15010KT 14/03 A2997 RMK A01 T01400033  RH  048%=      5-min Rain = 0
KHA3 170220Z 16012KT 14/03 A2996 RMK A01 T01390033  RH  049%=      5-min Rain = 0
KHA3 170221Z 16013KT 14/03 A2996 RMK A01 T01390032  RH  048%=      5-min Rain = 0
KHA3 170222Z 16011KT 14/03 A2996 RMK A01 T01400033  RH  048%=      5-min Rain = 0
KHA3 170223Z 16011KT 14/03 A2996 RMK A01 T01390033  RH  049%=      5-min Rain = 0
KHA3 170224Z 16011KT 14/03 A2996 RMK A01 T01390033  RH  049%=      5-min Rain = 0
KHA3 170225Z 16011KT 14/03 A2996 RMK A01 T01380033  RH  049%=      5-min Rain = 0
KHA3 170226Z 16013KT 14/03 A2996 RMK A01 T01380033  RH  049%=      5-min Rain = 0
KHA3 170227Z 16013KT 14/03 A2996 RMK A01 T01370032  RH  049%=      5-min Rain = 0
KHA3 170228Z 16012KT 14/03 A2996 RMK A01 T01380033  RH  049%=      5-min Rain = 0
KHA3 170229Z 16011KT 14/03 A2996 RMK A01 T01380033  RH  049%=      5-min Rain = 0
KHA3 170230Z 16012KT 14/03 A2996 RMK A01 T01370033  RH  049%=      5-min Rain = 0
KHA3 170231Z 16011KT 14/03 A2996 RMK A01 T01370033  RH  049%=      5-min Rain = 0
KHA3 170232Z 16011KT 14/03 A2996 RMK A01 T01370033  RH  050%=      5-min Rain = 0
KHA3 170233Z 16012KT 14/03 A2996 RMK A01 T01360033  RH  050%=      5-min Rain = 0
KHA3 170234Z 16012KT 14/03 A2996 RMK A01 T01350033  RH  050%=      5-min Rain = 0
KHA3 170235Z 16011KT 14/03 A2996 RMK A01 T01360033  RH  050%=      5-min Rain = 0
KHA3 170236Z 16011KT 14/03 A2996 RMK A01 T01350033  RH  050%=      5-min Rain = 0
KHA3 170237Z 16011KT 14/03 A2996 RMK A01 T01350033  RH  050%=      5-min Rain = 0
KHA3 170238Z 16010KT 13/03 A2996 RMK A01 T01340033  RH  050%=      5-min Rain = 0
KHA3 170239Z 16010KT 13/03 A2996 RMK A01 T01340033  RH  050%=      5-min Rain = 0
KHA3 170240Z 16011KT 13/03 A2996 RMK A01 T01330033  RH  051%=      5-min Rain = 0
KHA3 170241Z 16012KT 13/03 A2996 RMK A01 T01330033  RH  051%=      5-min Rain = 0
KHA3 170242Z 16011KT 13/03 A2996 RMK A01 T01320033  RH  051%=      5-min Rain = 0
KHA3 170243Z 16010KT 13/03 A2996 RMK A01 T01320033  RH  051%=      5-min Rain = 0
KHA3 170244Z 16011KT 13/03 A2996 RMK A01 T01310033  RH  051%=      5-min Rain = 0
KHA3 170245Z 15010KT 13/03 A2996 RMK A01 T01300033  RH  052%=      5-min Rain = 0
KHA3 170246Z 16010KT 13/03 A2996 RMK A01 T01300033  RH  052%=      5-min Rain = 0
KHA3 170247Z 16010KT 13/03 A2996 RMK A01 T01300033  RH  052%=      5-min Rain = 0
KHA3 170248Z 16011KT 13/03 A2996 RMK A01 T01280033  RH  052%=      5-min Rain = 0
KHA3 170249Z 16010KT 13/03 A2996 RMK A01 T01280033  RH  052%=      5-min Rain = 0
KHA3 170250Z 16011KT 13/03 A2996 RMK A01 T01280033  RH  052%=      5-min Rain = 0
KHA3 170251Z 16010KT 13/03 A2996 RMK A01 T01280033  RH  052%=      5-min Rain = 0
KHA3 170252Z 16011KT 13/03 A2996 RMK A01 T01280033  RH  053%=      5-min Rain = 0
KHA3 170253Z 16011KT 13/03 A2996 RMK A01 T01280033  RH  053%=      5-min Rain = 0
KHA3 170254Z 16011KT 13/03 A2996 RMK A01 T01280033  RH  053%=      5-min Rain = 0
KHA3 170255Z 16010KT 13/03 A2996 RMK A01 T01280033  RH  053%=      5-min Rain = 0
KHA3 170256Z 15011KT 13/03 A2996 RMK A01 T01270033  RH  053%=      5-min Rain = 0
KHA3 170257Z 16011KT 13/03 A2996 RMK A01 T01270033  RH  053%=      5-min Rain = 0
KHA3 170258Z 16009KT 13/03 A2996 RMK A01 T01270034  RH  053%=      5-min Rain = 0
KHA3 170259Z 16011KT 13/03 A2996 RMK A01 T01260034  RH  053%=      5-min Rain = 0
KHA3 170300Z 15011KT 13/03 A2996 RMK A01 T01260033  RH  053%=      5-min Rain = 0
KHA3 170301Z 16011KT 13/03 A2996 RMK A01 T01260033  RH  053%=      5-min Rain = 0
KHA3 170302Z 16011KT 13/03 A2996 RMK A01 T01260033  RH  053%=      5-min Rain = 0
KHA3 170303Z 15011KT 13/03 A2996 RMK A01 T01260034  RH  053%=      5-min Rain = 0
KHA3 170304Z 16011KT 13/03 A2996 RMK A01 T01260034  RH  054%=      5-min Rain = 0
KHA3 170305Z 16011KT 13/03 A2996 RMK A01 T01260034  RH  054%=      5-min Rain = 0
KHA3 170306Z 15011KT 13/03 A2996 RMK A01 T01250034  RH  053%=      5-min Rain = 0
KHA3 170307Z 16010KT 13/03 A2996 RMK A01 T01250034  RH  054%=      5-min Rain = 0
KHA3 170308Z 16011KT 13/03 A2996 RMK A01 T01250034  RH  054%=      5-min Rain = 0
KHA3 170309Z 16011KT 13/03 A2996 RMK A01 T01250034  RH  054%=      5-min Rain = 0
KHA3 170310Z 15010KT 13/03 A2996 RMK A01 T01250034  RH  054%=      5-min Rain = 0
KHA3 170311Z 15011KT 12/03 A2996 RMK A01 T01240034  RH  054%=      5-min Rain = 0
KHA3 170312Z 15011KT 12/03 A2996 RMK A01 T01240034  RH  054%=      5-min Rain = 0
KHA3 170313Z 15011KT 12/03 A2996 RMK A01 T01240034  RH  054%=      5-min Rain = 0
KHA3 170314Z 15011KT 12/03 A2995 RMK A01 T01240034  RH  054%=      5-min Rain = 0
KHA3 170315Z 15011KT 12/03 A2995 RMK A01 T01230034  RH  055%=      5-min Rain = 0
KHA3 170316Z 15010KT 12/03 A2995 RMK A01 T01230034  RH  055%=      5-min Rain = 0
KHA3 170317Z 15010KT 12/03 A2995 RMK A01 T01220034  RH  055%=      5-min Rain = 0
KHA3 170318Z 15010KT 12/03 A2995 RMK A01 T01210034  RH  055%=      5-min Rain = 0
KHA3 170319Z 15010KT 12/03 A2995 RMK A01 T01210034  RH  055%=      5-min Rain = 0
KHA3 170320Z 15011KT 12/03 A2995 RMK A01 T01200034  RH  056%=      5-min Rain = 0
KHA3 170321Z 15010KT 12/04 A2995 RMK A01 T01200035  RH  056%=      5-min Rain = 0
KHA3 170322Z 15010KT 12/03 A2995 RMK A01 T01200034  RH  056%=      5-min Rain = 0
KHA3 170323Z 15010KT 12/04 A2995 RMK A01 T01200035  RH  056%=      5-min Rain = 0
KHA3 170324Z 15010KT 12/03 A2995 RMK A01 T01190034  RH  056%=      5-min Rain = 0
KHA3 170325Z 16010KT 12/03 A2995 RMK A01 T01190034  RH  056%=      5-min Rain = 0
KHA3 170326Z 16010KT 12/04 A2995 RMK A01 T01190035  RH  056%=      5-min Rain = 0
KHA3 170327Z 16010KT 12/04 A2995 RMK A01 T01190035  RH  056%=      5-min Rain = 0
KHA3 170328Z 15010KT 12/04 A2995 RMK A01 T01190035  RH  056%=      5-min Rain = 0
KHA3 170329Z 15010KT 12/04 A2995 RMK A01 T01190035  RH  056%=      5-min Rain = 0
KHA3 170330Z 16010KT 12/04 A2995 RMK A01 T01190035  RH  056%=      5-min Rain = 0
KHA3 170331Z 15010KT 12/04 A2995 RMK A01 T01190035  RH  056%=      5-min Rain = 0
KHA3 170332Z 16010KT 12/04 A2995 RMK A01 T01190035  RH  056%=      5-min Rain = 0
KHA3 170333Z 16010KT 12/04 A2995 RMK A01 T01190035  RH  056%=      5-min Rain = 0
KHA3 170334Z 15010KT 12/04 A2995 RMK A01 T01190035  RH  056%=      5-min Rain = 0
KHA3 170335Z 16009KT 12/04 A2995 RMK A01 T01190035  RH  056%=      5-min Rain = 0
KHA3 170336Z 16010KT 12/04 A2996 RMK A01 T01180035  RH  056%=      5-min Rain = 0
KHA3 170337Z 16010KT 12/04 A2996 RMK A01 T01180035  RH  057%=      5-min Rain = 0
KHA3 170338Z 16010KT 12/04 A2996 RMK A01 T01180035  RH  057%=      5-min Rain = 0
KHA3 170339Z 16009KT 12/04 A2996 RMK A01 T01180035  RH  057%=      5-min Rain = 0
KHA3 170340Z 16009KT 12/04 A2995 RMK A01 T01180035  RH  057%=      5-min Rain = 0
KHA3 170341Z 16010KT 12/04 A2995 RMK A01 T01180035  RH  057%=      5-min Rain = 0
KHA3 170342Z 16010KT 12/04 A2995 RMK A01 T01180035  RH  057%=      5-min Rain = 0
KHA3 170343Z 16010KT 12/04 A2995 RMK A01 T01180035  RH  057%=      5-min Rain = 0
KHA3 170344Z 16009KT 12/04 A2995 RMK A01 T01180035  RH  057%=      5-min Rain = 0
KHA3 170345Z 16009KT 12/04 A2995 RMK A01 T01180035  RH  057%=      5-min Rain = 0
KHA3 170346Z 16009KT 12/04 A2995 RMK A01 T01170035  RH  057%=      5-min Rain = 0
KHA3 170347Z 16010KT 12/04 A2995 RMK A01 T01170035  RH  057%=      5-min Rain = 0
KHA3 170348Z 16009KT 12/04 A2995 RMK A01 T01160035  RH  057%=      5-min Rain = 0
KHA3 170349Z 16009KT 12/04 A2995 RMK A01 T01170035  RH  057%=      5-min Rain = 0
KHA3 170350Z 16008KT 12/04 A2995 RMK A01 T01160035  RH  057%=      5-min Rain = 0
KHA3 170351Z 16009KT 12/04 A2995 RMK A01 T01160035  RH  057%=      5-min Rain = 0
KHA3 170352Z 16008KT 12/04 A2996 RMK A01 T01160035  RH  058%=      5-min Rain = 0
KHA3 170353Z 16008KT 12/04 A2996 RMK A01 T01150035  RH  058%=      5-min Rain = 0
KHA3 170354Z 16008KT 12/04 A2996 RMK A01 T01150035  RH  058%=      5-min Rain = 0
KHA3 170355Z 16009KT 12/04 A2996 RMK A01 T01150035  RH  058%=      5-min Rain = 0
KHA3 170356Z 16009KT 12/04 A2996 RMK A01 T01150035  RH  058%=      5-min Rain = 0
KHA3 170357Z 16009KT 12/04 A2996 RMK A01 T01150035  RH  058%=      5-min Rain = 0
KHA3 170358Z 16009KT 12/04 A2996 RMK A01 T01150035  RH  058%=      5-min Rain = 0
KHA3 170359Z 16009KT 12/04 A2996 RMK A01 T01150035  RH  058%=      5-min Rain = 0
KHA3 170400Z 15009KT 12/04 A2996 RMK A01 T01150035  RH  058%=      5-min Rain = 0
KHA3 170401Z 15009KT 12/04 A2996 RMK A01 T01150035  RH  058%=      5-min Rain = 0
KHA3 170402Z 16009KT 12/04 A2996 RMK A01 T01150035  RH  058%=      5-min Rain = 0
KHA3 170403Z 16009KT 11/04 A2996 RMK A01 T01140035  RH  058%=      5-min Rain = 0
KHA3 170404Z 16009KT 11/04 A2996 RMK A01 T01130035  RH  059%=      5-min Rain = 0
KHA3 170405Z 16010KT 11/04 A2996 RMK A01 T01130035  RH  059%=      5-min Rain = 0
KHA3 170406Z 16010KT 11/04 A2996 RMK A01 T01130035  RH  059%=      5-min Rain = 0
KHA3 170407Z 16010KT 11/04 A2996 RMK A01 T01120035  RH  059%=      5-min Rain = 0
KHA3 170408Z 16010KT 11/04 A2996 RMK A01 T01120035  RH  059%=      5-min Rain = 0
KHA3 170409Z 16010KT 11/04 A2996 RMK A01 T01110035  RH  059%=      5-min Rain = 0
KHA3 170410Z 16010KT 11/04 A2996 RMK A01 T01110035  RH  060%=      5-min Rain = 0
KHA3 170411Z 16011KT 11/04 A2996 RMK A01 T01110036  RH  060%=      5-min Rain = 0
KHA3 170412Z 16011KT 11/04 A2996 RMK A01 T01110035  RH  060%=      5-min Rain = 0
KHA3 170413Z 16011KT 11/04 A2996 RMK A01 T01110036  RH  060%=      5-min Rain = 0
KHA3 170414Z 16011KT 11/04 A2995 RMK A01 T01110035  RH  060%=      5-min Rain = 0
KHA3 170415Z 16011KT 11/04 A2995 RMK A01 T01110036  RH  060%=      5-min Rain = 0
KHA3 170416Z 16011KT 11/04 A2995 RMK A01 T01100036  RH  060%=      5-min Rain = 0
KHA3 170417Z 16010KT 11/04 A2996 RMK A01 T01100036  RH  060%=      5-min Rain = 0
KHA3 170418Z 16010KT 11/04 A2996 RMK A01 T01100036  RH  060%=      5-min Rain = 0
KHA3 170419Z 16010KT 11/04 A2996 RMK A01 T01090036  RH  060%=      5-min Rain = 0
KHA3 170420Z 16010KT 11/04 A2996 RMK A01 T01100036  RH  060%=      5-min Rain = 0
KHA3 170421Z 16010KT 11/04 A2996 RMK A01 T01090036  RH  060%=      5-min Rain = 0
KHA3 170422Z 16010KT 11/04 A2996 RMK A01 T01090036  RH  060%=      5-min Rain = 0
KHA3 170423Z 16010KT 11/04 A2996 RMK A01 T01090036  RH  061%=      5-min Rain = 0
KHA3 170424Z 16010KT 11/04 A2996 RMK A01 T01090036  RH  061%=      5-min Rain = 0
KHA3 170425Z 16010KT 11/04 A2996 RMK A01 T01080036  RH  061%=      5-min Rain = 0
KHA3 170426Z 16010KT 11/04 A2996 RMK A01 T01080036  RH  061%=      5-min Rain = 0
KHA3 170427Z 16010KT 11/04 A2996 RMK A01 T01070036  RH  061%=      5-min Rain = 0
KHA3 170428Z 16010KT 11/04 A2996 RMK A01 T01070036  RH  061%=      5-min Rain = 0
KHA3 170429Z 16009KT 11/04 A2996 RMK A01 T01070036  RH  061%=      5-min Rain = 0
KHA3 170430Z 16009KT 11/04 A2996 RMK A01 T01070036  RH  061%=      5-min Rain = 0
KHA3 170431Z 16009KT 11/04 A2996 RMK A01 T01060036  RH  062%=      5-min Rain = 0
KHA3 170432Z 16009KT 11/04 A2996 RMK A01 T01060036  RH  062%=      5-min Rain = 0
KHA3 170433Z 16008KT 11/04 A2996 RMK A01 T01060036  RH  062%=      5-min Rain = 0
KHA3 170434Z 16009KT 11/04 A2996 RMK A01 T01050036  RH  062%=      5-min Rain = 0
KHA3 170435Z 16008KT 11/04 A2996 RMK A01 T01050036  RH  062%=      5-min Rain = 0
KHA3 170436Z 16008KT 11/04 A2996 RMK A01 T01050036  RH  062%=      5-min Rain = 0
KHA3 170437Z 16009KT 11/04 A2996 RMK A01 T01050036  RH  062%=      5-min Rain = 0
KHA3 170438Z 16008KT 11/04 A2996 RMK A01 T01050036  RH  062%=      5-min Rain = 0
KHA3 170439Z 16008KT 10/04 A2996 RMK A01 T01040036  RH  062%=      5-min Rain = 0
KHA3 170440Z 16008KT 11/04 A2996 RMK A01 T01050036  RH  062%=      5-min Rain = 0
KHA3 170441Z 16009KT 10/04 A2996 RMK A01 T01040035  RH  062%=      5-min Rain = 0
KHA3 170442Z 16008KT 10/04 A2997 RMK A01 T01040036  RH  062%=      5-min Rain = 0
KHA3 170443Z 16008KT 10/04 A2997 RMK A01 T01040036  RH  062%=      5-min Rain = 0
KHA3 170444Z 16008KT 10/04 A2997 RMK A01 T01040036  RH  063%=      5-min Rain = 0
KHA3 170445Z 16008KT 10/04 A2997 RMK A01 T01040036  RH  063%=      5-min Rain = 0
KHA3 170446Z 16009KT 10/04 A2997 RMK A01 T01030035  RH  063%=      5-min Rain = 0
KHA3 170447Z 16008KT 10/04 A2996 RMK A01 T01020036  RH  063%=      5-min Rain = 0
KHA3 170448Z 16009KT 10/04 A2996 RMK A01 T01020036  RH  063%=      5-min Rain = 0
KHA3 170449Z 16009KT 10/04 A2996 RMK A01 T01020036  RH  063%=      5-min Rain = 0
KHA3 170450Z 17009KT 10/04 A2996 RMK A01 T01020036  RH  064%=      5-min Rain = 0
KHA3 170451Z 17009KT 10/04 A2996 RMK A01 T01020036  RH  064%=      5-min Rain = 0
KHA3 170452Z 17009KT 10/04 A2996 RMK A01 T01010036  RH  064%=      5-min Rain = 0
KHA3 170453Z 17009KT 10/04 A2996 RMK A01 T01010036  RH  064%=      5-min Rain = 0
KHA3 170454Z 17009KT 10/04 A2996 RMK A01 T01010036  RH  064%=      5-min Rain = 0
KHA3 170455Z 17009KT 10/04 A2996 RMK A01 T01000036  RH  064%=      5-min Rain = 0
KHA3 170456Z 17010KT 10/04 A2996 RMK A01 T01000037  RH  064%=      5-min Rain = 0
KHA3 170457Z 17009KT 10/04 A2996 RMK A01 T01000036  RH  065%=      5-min Rain = 0
KHA3 170458Z 17009KT 10/04 A2996 RMK A01 T01000036  RH  065%=      5-min Rain = 0
KHA3 170459Z 17009KT 10/04 A2996 RMK A01 T01000037  RH  065%=      5-min Rain = 0
KHA3 170500Z 17009KT 10/04 A2996 RMK A01 T01000037  RH  065%=      5-min Rain = 0
KHA3 170501Z 17009KT 10/04 A2996 RMK A01 T01000037  RH  065%=      5-min Rain = 0
KHA3 170502Z 17009KT 10/04 A2996 RMK A01 T01000037  RH  065%=      5-min Rain = 0
KHA3 170503Z 17009KT 10/04 A2996 RMK A01 T01000037  RH  065%=      5-min Rain = 0
KHA3 170504Z 17009KT 10/04 A2996 RMK A01 T01010038  RH  065%=      5-min Rain = 0
KHA3 170505Z 17009KT 10/04 A2996 RMK A01 T01010037  RH  065%=      5-min Rain = 0
KHA3 170506Z 17008KT 10/04 A2996 RMK A01 T01010038  RH  065%=      5-min Rain = 0
KHA3 170507Z 17008KT 10/04 A2996 RMK A01 T01010038  RH  065%=      5-min Rain = 0
KHA3 170508Z 17008KT 10/04 A2996 RMK A01 T01010038  RH  065%=      5-min Rain = 0
KHA3 170509Z 17008KT 10/04 A2997 RMK A01 T01010038  RH  065%=      5-min Rain = 0
KHA3 170510Z 17009KT 10/04 A2997 RMK A01 T01010038  RH  065%=      5-min Rain = 0
KHA3 170511Z 17008KT 10/04 A2997 RMK A01 T01010038  RH  065%=      5-min Rain = 0
KHA3 170512Z 17008KT 10/04 A2997 RMK A01 T01010038  RH  065%=      5-min Rain = 0
KHA3 170513Z 17008KT 10/04 A2997 RMK A01 T01010038  RH  065%=      5-min Rain = 0
KHA3 170514Z 17008KT 10/04 A2997 RMK A01 T01010038  RH  065%=      5-min Rain = 0
KHA3 170515Z 17007KT 10/04 A2997 RMK A01 T01010038  RH  065%=      5-min Rain = 0
KHA3 170516Z 17007KT 10/04 A2997 RMK A01 T01010038  RH  065%=      5-min Rain = 0
KHA3 170517Z 17007KT 10/04 A2997 RMK A01 T01000038  RH  065%=      5-min Rain = 0
KHA3 170518Z 17007KT 10/04 A2997 RMK A01 T01000038  RH  065%=      5-min Rain = 0
KHA3 170519Z 17007KT 10/04 A2997 RMK A01 T01010038  RH  065%=      5-min Rain = 0
KHA3 170520Z 17007KT 10/04 A2997 RMK A01 T01010038  RH  065%=      5-min Rain = 0
KHA3 170521Z 17007KT 10/04 A2997 RMK A01 T01010038  RH  065%=      5-min Rain = 0
KHA3 170522Z 18007KT 10/04 A2998 RMK A01 T01010039  RH  065%=      5-min Rain = 0
KHA3 170523Z 17007KT 10/04 A2998 RMK A01 T01010039  RH  065%=      5-min Rain = 0
KHA3 170524Z 17007KT 10/04 A2998 RMK A01 T01010039  RH  065%=      5-min Rain = 0
KHA3 170525Z 17007KT 10/04 A2998 RMK A01 T01010039  RH  065%=      5-min Rain = 0
KHA3 170526Z 18008KT 10/04 A2998 RMK A01 T01000039  RH  066%=      5-min Rain = 0
KHA3 170527Z 18008KT 10/04 A2998 RMK A01 T01000039  RH  066%=      5-min Rain = 0
KHA3 170528Z 18008KT 10/04 A2998 RMK A01 T00990039  RH  066%=      5-min Rain = 0
KHA3 170529Z 18008KT 10/04 A2997 RMK A01 T00990039  RH  066%=      5-min Rain = 0
KHA3 170530Z 18007KT 10/04 A2997 RMK A01 T00980039  RH  067%=      5-min Rain = 0
KHA3 170531Z 18007KT 10/04 A2997 RMK A01 T00980040  RH  067%=      5-min Rain = 0
KHA3 170532Z 18006KT 10/04 A2997 RMK A01 T00980039  RH  067%=      5-min Rain = 0
KHA3 170533Z 18006KT 10/04 A2997 RMK A01 T00980040  RH  067%=      5-min Rain = 0
KHA3 170534Z 18006KT 10/04 A2997 RMK A01 T00970039  RH  067%=      5-min Rain = 0
KHA3 170535Z 17006KT 10/04 A2997 RMK A01 T00970039  RH  067%=      5-min Rain = 0
KHA3 170536Z 17005KT 10/04 A2997 RMK A01 T00970039  RH  067%=      5-min Rain = 0
KHA3 170537Z 17005KT 10/04 A2997 RMK A01 T00970039  RH  068%=      5-min Rain = 0
KHA3 170538Z 17005KT 10/04 A2997 RMK A01 T00970040  RH  068%=      5-min Rain = 0
KHA3 170539Z 17004KT 10/04 A2997 RMK A01 T00960039  RH  068%=      5-min Rain = 0
KHA3 170540Z 17004KT 10/04 A2997 RMK A01 T00960040  RH  068%=      5-min Rain = 0
KHA3 170541Z 17004KT 10/04 A2998 RMK A01 T00960039  RH  068%=      5-min Rain = 0
KHA3 170542Z 17003KT 10/04 A2998 RMK A01 T00960039  RH  068%=      5-min Rain = 0
KHA3 170543Z 17003KT 10/04 A2998 RMK A01 T00960039  RH  068%=      5-min Rain = 0
KHA3 170544Z 17003KT 10/04 A2998 RMK A01 T00960039  RH  068%=      5-min Rain = 0
KHA3 170545Z 18002KT 10/04 A2998 RMK A01 T00960039  RH  068%=      5-min Rain = 0
KHA3 170546Z 17002KT 10/04 A2998 RMK A01 T00970040  RH  068%=      5-min Rain = 0
KHA3 170547Z 17003KT 10/04 A2998 RMK A01 T00970039  RH  067%=      5-min Rain = 0
KHA3 170548Z 17002KT 10/04 A2998 RMK A01 T00970039  RH  067%=      5-min Rain = 0
KHA3 170549Z 17003KT 10/04 A2998 RMK A01 T00970039  RH  067%=      5-min Rain = 0
KHA3 170550Z 17002KT 10/04 A2998 RMK A01 T00970039  RH  067%=      5-min Rain = 0
KHA3 170551Z 18002KT 10/04 A2998 RMK A01 T00970039  RH  067%=      5-min Rain = 0
KHA3 170552Z 18002KT 10/04 A2998 RMK A01 T00970039  RH  067%=      5-min Rain = 0
KHA3 170553Z 19003KT 10/04 A2998 RMK A01 T00980039  RH  067%=      5-min Rain = 0
KHA3 170554Z 19003KT 10/04 A2998 RMK A01 T00980039  RH  067%=      5-min Rain = 0
KHA3 170555Z 19004KT 10/04 A2998 RMK A01 T00980039  RH  067%=      5-min Rain = 0
KHA3 170556Z 19004KT 10/04 A2998 RMK A01 T00970039  RH  067%=      5-min Rain = 0
KHA3 170557Z 19004KT 10/04 A2998 RMK A01 T00980040  RH  067%=      5-min Rain = 0
KHA3 170558Z 19005KT 10/04 A2998 RMK A01 T00980040  RH  067%=      5-min Rain = 0
KHA3 170559Z 19005KT 10/04 A2998 RMK A01 T00970040  RH  067%=      5-min Rain = 0

Page generated in 0.0713 seconds.